Time,TemperatureF,DewpointF,PressureIn,WindDirection,WindDirectionDegrees,WindSpeedMPH,WindSpeedGustMPH,Humidity,HourlyPrecipIn,Conditions,Clouds,dailyrainin,SoftwareType,DateUTC
2013-06-24 00:01:00,72.8,70.7,30.09,WSW,258,0.0,0.0,93,0.00,,,0.08,Wunderground v.1.15,2013-06-24 04:01:00,
2013-06-24 00:03:00,72.7,70.6,30.09,WSW,258,0.0,0.0,93,0.00,,,0.08,Wunderground v.1.15,2013-06-24 04:03:00,
2013-06-24 00:08:00,72.7,70.6,30.09,West,259,0.0,0.0,93,0.00,,,0.08,Wunderground v.1.15,2013-06-24 04:08:00,
2013-06-24 00:09:00,72.7,70.6,30.09,WSW,258,0.0,0.0,93,0.00,,,0.08,Wunderground v.1.15,2013-06-24 04:09:00,
2013-06-24 00:10:00,72.7,70.6,30.09,WSW,258,0.0,0.0,93,0.00,,,0.08,Wunderground v.1.15,2013-06-24 04:10:00,
2013-06-24 00:13:00,72.7,70.6,30.09,WSW,258,0.0,0.0,93,0.00,,,0.08,Wunderground v.1.15,2013-06-24 04:13:00,
2013-06-24 00:14:00,72.7,70.6,30.09,West,259,0.0,0.0,93,0.00,,,0.08,Wunderground v.1.15,2013-06-24 04:14:00,
2013-06-24 00:16:00,72.5,70.4,30.09,WSW,258,0.0,0.0,93,0.00,,,0.08,Wunderground v.1.15,2013-06-24 04:16:00,
2013-06-24 00:19:00,72.5,70.4,30.09,West,259,0.0,0.0,93,0.00,,,0.08,Wunderground v.1.15,2013-06-24 04:19:00,
2013-06-24 00:20:00,72.5,70.4,30.09,WSW,258,0.0,0.0,93,0.00,,,0.08,Wunderground v.1.15,2013-06-24 04:20:00,
2013-06-24 00:22:00,72.5,70.4,30.08,WSW,258,0.0,0.0,93,0.00,,,0.08,Wunderground v.1.15,2013-06-24 04:22:00,
2013-06-24 00:23:00,72.5,70.4,30.08,WSW,258,0.0,0.0,93,0.00,,,0.08,Wunderground v.1.15,2013-06-24 04:23:00,
2013-06-24 00:24:00,72.5,70.4,30.08,WSW,258,0.0,0.0,93,0.00,,,0.08,Wunderground v.1.15,2013-06-24 04:24:00,
2013-06-24 00:25:00,72.5,70.4,30.08,WSW,258,0.0,0.0,93,0.00,,,0.08,Wunderground v.1.15,2013-06-24 04:25:00,
2013-06-24 00:29:00,72.5,70.4,30.08,WSW,258,0.0,0.0,93,0.00,,,0.08,Wunderground v.1.15,2013-06-24 04:29:00,
2013-06-24 00:30:00,72.5,70.4,30.08,SSW,209,0.0,0.0,93,0.00,,,0.08,Wunderground v.1.15,2013-06-24 04:30:00,
2013-06-24 00:31:00,72.5,70.4,30.08,SSW,209,0.0,0.0,93,0.00,,,0.08,Wunderground v.1.15,2013-06-24 04:31:00,
2013-06-24 00:32:00,72.5,70.4,30.08,SSW,209,0.0,0.0,93,0.00,,,0.08,Wunderground v.1.15,2013-06-24 04:32:00,
2013-06-24 00:37:00,72.5,70.4,30.08,WSW,240,0.0,3.0,93,0.00,,,0.08,Wunderground v.1.15,2013-06-24 04:37:00,
2013-06-24 00:38:00,72.5,70.4,30.08,WSW,240,0.0,3.0,93,0.00,,,0.08,Wunderground v.1.15,2013-06-24 04:38:00,
2013-06-24 00:40:00,72.5,70.4,30.08,WSW,240,0.0,0.0,93,0.00,,,0.08,Wunderground v.1.15,2013-06-24 04:40:00,
2013-06-24 00:43:00,72.5,70.4,30.08,WSW,250,0.0,2.0,93,0.00,,,0.08,Wunderground v.1.15,2013-06-24 04:43:00,
2013-06-24 00:44:00,72.5,70.4,30.08,WSW,250,0.0,2.0,93,0.00,,,0.08,Wunderground v.1.15,2013-06-24 04:44:00,
2013-06-24 00:45:00,72.5,70.4,30.08,WSW,250,0.0,2.0,93,0.00,,,0.08,Wunderground v.1.15,2013-06-24 04:45:00,
2013-06-24 00:46:00,72.5,70.4,30.08,WSW,250,0.0,2.0,93,0.00,,,0.08,Wunderground v.1.15,2013-06-24 04:46:00,
2013-06-24 00:49:00,72.5,70.4,30.08,WSW,250,0.0,2.0,93,0.00,,,0.08,Wunderground v.1.15,2013-06-24 04:49:00,
2013-06-24 00:50:00,72.3,70.2,30.08,WSW,250,0.0,0.0,93,0.00,,,0.08,Wunderground v.1.15,2013-06-24 04:50:00,
2013-06-24 00:52:00,72.3,70.2,30.08,WSW,249,0.0,1.0,93,0.00,,,0.08,Wunderground v.1.15,2013-06-24 04:52:00,
2013-06-24 00:53:00,72.3,70.2,30.08,WSW,249,0.0,1.0,93,0.00,,,0.08,Wunderground v.1.15,2013-06-24 04:53:00,
2013-06-24 00:55:00,72.3,70.2,30.08,WSW,246,0.0,1.0,93,0.00,,,0.08,Wunderground v.1.15,2013-06-24 04:55:00,
2013-06-24 00:57:00,72.3,70.2,30.08,WSW,246,0.0,1.0,93,0.00,,,0.08,Wunderground v.1.15,2013-06-24 04:57:00,
2013-06-24 00:58:00,72.3,70.2,30.08,WSW,246,0.0,1.0,93,0.00,,,0.08,Wunderground v.1.15,2013-06-24 04:58:00,
2013-06-24 01:01:00,72.3,70.2,30.08,WSW,247,2.0,2.0,93,0.00,,,0.08,Wunderground v.1.15,2013-06-24 05:01:00,
2013-06-24 01:02:00,72.3,70.2,30.08,WSW,247,0.0,2.0,93,0.00,,,0.08,Wunderground v.1.15,2013-06-24 05:02:00,
2013-06-24 01:03:00,72.3,70.2,30.08,WSW,247,0.0,2.0,93,0.00,,,0.08,Wunderground v.1.15,2013-06-24 05:03:00,
2013-06-24 01:06:00,72.3,70.2,30.08,WSW,246,0.0,2.0,93,0.00,,,0.08,Wunderground v.1.15,2013-06-24 05:06:00,
2013-06-24 01:08:00,72.3,70.2,30.08,WSW,247,0.0,2.0,93,0.00,,,0.08,Wunderground v.1.15,2013-06-24 05:08:00,
2013-06-24 01:09:00,72.3,70.2,30.08,WSW,248,0.0,2.0,93,0.00,,,0.08,Wunderground v.1.15,2013-06-24 05:09:00,
2013-06-24 01:10:00,72.3,70.5,30.08,WSW,248,0.0,0.0,94,0.00,,,0.08,Wunderground v.1.15,2013-06-24 05:10:00,
2013-06-24 01:11:00,72.3,70.5,30.08,WSW,248,0.0,0.0,94,0.00,,,0.08,Wunderground v.1.15,2013-06-24 05:11:00,
2013-06-24 01:13:00,72.3,70.5,30.08,WSW,248,0.0,0.0,94,0.00,,,0.08,Wunderground v.1.15,2013-06-24 05:13:00,
2013-06-24 01:15:00,72.3,70.5,30.08,WSW,248,0.0,0.0,94,0.00,,,0.08,Wunderground v.1.15,2013-06-24 05:15:00,
2013-06-24 01:16:00,72.3,70.5,30.08,WSW,248,0.0,0.0,94,0.00,,,0.08,Wunderground v.1.15,2013-06-24 05:16:00,
2013-06-24 01:17:00,72.3,70.5,30.08,WSW,248,0.0,0.0,94,0.00,,,0.08,Wunderground v.1.15,2013-06-24 05:17:00,
2013-06-24 01:19:00,72.3,70.5,30.08,WSW,249,0.0,0.0,94,0.00,,,0.08,Wunderground v.1.15,2013-06-24 05:19:00,
2013-06-24 01:21:00,72.3,70.5,30.08,WSW,249,0.0,0.0,94,0.00,,,0.08,Wunderground v.1.15,2013-06-24 05:21:00,
2013-06-24 01:26:00,72.3,70.5,30.08,WSW,250,0.0,3.0,94,0.00,,,0.08,Wunderground v.1.15,2013-06-24 05:26:00,
2013-06-24 01:27:00,72.3,70.5,30.08,WSW,250,0.0,3.0,94,0.00,,,0.08,Wunderground v.1.15,2013-06-24 05:27:00,
2013-06-24 01:28:00,72.3,70.5,30.08,WSW,250,0.0,3.0,94,0.00,,,0.08,Wunderground v.1.15,2013-06-24 05:28:00,
2013-06-24 01:32:00,72.3,70.5,30.08,WSW,258,0.0,0.0,94,0.00,,,0.08,Wunderground v.1.15,2013-06-24 05:32:00,
2013-06-24 01:33:00,72.3,70.5,30.08,WSW,258,0.0,0.0,94,0.00,,,0.08,Wunderground v.1.15,2013-06-24 05:33:00,
2013-06-24 01:36:00,72.3,70.5,30.08,WSW,258,0.0,0.0,94,0.00,,,0.08,Wunderground v.1.15,2013-06-24 05:36:00,
2013-06-24 01:39:00,72.3,70.5,30.08,WSW,257,2.0,2.0,94,0.00,,,0.08,Wunderground v.1.15,2013-06-24 05:39:00,
2013-06-24 01:42:00,72.3,70.5,30.08,SW,218,0.0,0.0,94,0.00,,,0.08,Wunderground v.1.15,2013-06-24 05:42:00,
2013-06-24 01:44:00,72.3,70.5,30.08,SW,218,0.0,0.0,94,0.00,,,0.08,Wunderground v.1.15,2013-06-24 05:44:00,
2013-06-24 01:45:00,72.3,70.5,30.08,SW,218,0.0,0.0,94,0.00,,,0.08,Wunderground v.1.15,2013-06-24 05:45:00,
2013-06-24 01:49:00,72.3,70.5,30.08,WSW,251,0.0,2.0,94,0.00,,,0.08,Wunderground v.1.15,2013-06-24 05:49:00,
2013-06-24 01:50:00,72.3,70.5,30.08,WSW,252,0.0,0.0,94,0.00,,,0.08,Wunderground v.1.15,2013-06-24 05:50:00,
2013-06-24 01:54:00,72.3,70.5,30.08,WSW,251,0.0,0.0,94,0.00,,,0.08,Wunderground v.1.15,2013-06-24 05:54:00,
2013-06-24 01:57:00,72.3,70.5,30.08,WSW,251,0.0,0.0,94,0.00,,,0.08,Wunderground v.1.15,2013-06-24 05:57:00,
2013-06-24 02:01:00,72.3,70.5,30.08,WSW,251,0.0,0.0,94,0.00,,,0.08,Wunderground v.1.15,2013-06-24 06:01:00,
2013-06-24 02:02:00,72.3,70.5,30.08,WSW,251,0.0,0.0,94,0.00,,,0.08,Wunderground v.1.15,2013-06-24 06:02:00,
2013-06-24 02:03:00,72.3,70.5,30.08,WSW,251,0.0,0.0,94,0.00,,,0.08,Wunderground v.1.15,2013-06-24 06:03:00,
2013-06-24 02:06:00,72.3,70.5,30.08,WSW,251,0.0,0.0,94,0.00,,,0.09,Wunderground v.1.15,2013-06-24 06:06:00,
2013-06-24 02:08:00,72.3,70.5,30.08,WSW,251,0.0,0.0,94,0.00,,,0.09,Wunderground v.1.15,2013-06-24 06:08:00,
2013-06-24 02:09:00,72.3,70.5,30.08,WSW,251,0.0,0.0,94,0.00,,,0.09,Wunderground v.1.15,2013-06-24 06:09:00,
2013-06-24 02:10:00,72.3,70.5,30.08,WSW,251,0.0,0.0,94,0.00,,,0.09,Wunderground v.1.15,2013-06-24 06:10:00,
2013-06-24 02:12:00,72.1,70.3,30.08,WSW,251,0.0,1.0,94,0.00,,,0.09,Wunderground v.1.15,2013-06-24 06:12:00,
2013-06-24 02:14:00,72.1,70.3,30.08,WSW,251,0.0,1.0,94,0.00,,,0.09,Wunderground v.1.15,2013-06-24 06:14:00,
2013-06-24 02:15:00,72.1,70.3,30.08,WSW,251,1.0,1.0,94,0.00,,,0.09,Wunderground v.1.15,2013-06-24 06:15:00,
2013-06-24 02:16:00,72.1,70.3,30.08,WSW,251,0.0,1.0,94,0.00,,,0.09,Wunderground v.1.15,2013-06-24 06:16:00,
2013-06-24 02:17:00,72.1,70.3,30.08,WSW,251,0.0,1.0,94,0.00,,,0.09,Wunderground v.1.15,2013-06-24 06:17:00,
2013-06-24 02:20:00,72.1,70.3,30.07,WSW,252,0.0,0.0,94,0.00,,,0.09,Wunderground v.1.15,2013-06-24 06:20:00,
2013-06-24 02:21:00,72.1,70.3,30.07,WSW,251,0.0,0.0,94,0.00,,,0.09,Wunderground v.1.15,2013-06-24 06:21:00,
2013-06-24 02:24:00,72.1,70.3,30.07,WSW,251,0.0,0.0,94,0.00,,,0.09,Wunderground v.1.15,2013-06-24 06:24:00,
2013-06-24 02:25:00,72.1,70.3,30.07,WSW,251,0.0,0.0,94,0.00,,,0.09,Wunderground v.1.15,2013-06-24 06:25:00,
2013-06-24 02:26:00,72.1,70.3,30.07,WSW,251,0.0,2.0,94,0.00,,,0.09,Wunderground v.1.15,2013-06-24 06:26:00,
2013-06-24 02:29:00,72.1,70.3,30.08,WSW,251,0.0,2.0,94,0.00,,,0.09,Wunderground v.1.15,2013-06-24 06:29:00,
2013-06-24 02:31:00,72.0,70.2,30.08,WSW,251,0.0,0.0,94,0.00,,,0.09,Wunderground v.1.15,2013-06-24 06:31:00,
2013-06-24 02:32:00,72.0,70.2,30.08,WSW,251,0.0,0.0,94,0.00,,,0.09,Wunderground v.1.15,2013-06-24 06:32:00,
2013-06-24 02:35:00,72.0,70.2,30.08,WSW,251,0.0,1.0,94,0.00,,,0.09,Wunderground v.1.15,2013-06-24 06:35:00,
2013-06-24 02:36:00,72.0,70.2,30.08,WSW,251,0.0,1.0,94,0.00,,,0.09,Wunderground v.1.15,2013-06-24 06:36:00,
2013-06-24 02:38:00,72.0,70.2,30.08,WSW,251,0.0,1.0,94,0.00,,,0.09,Wunderground v.1.15,2013-06-24 06:38:00,
2013-06-24 02:40:00,72.0,70.2,30.08,WSW,251,0.0,0.0,94,0.00,,,0.09,Wunderground v.1.15,2013-06-24 06:40:00,
2013-06-24 02:41:00,72.0,70.2,30.08,WSW,251,0.0,0.0,94,0.00,,,0.09,Wunderground v.1.15,2013-06-24 06:41:00,
2013-06-24 02:44:00,72.0,70.2,30.07,WSW,251,0.0,1.0,94,0.00,,,0.09,Wunderground v.1.15,2013-06-24 06:44:00,
2013-06-24 02:46:00,72.0,70.2,30.08,WSW,251,0.0,1.0,94,0.00,,,0.09,Wunderground v.1.15,2013-06-24 06:46:00,
2013-06-24 02:49:00,72.0,70.2,30.07,WSW,251,0.0,1.0,94,0.00,,,0.09,Wunderground v.1.15,2013-06-24 06:49:00,
2013-06-24 02:51:00,72.0,70.2,30.07,WSW,251,2.0,2.0,94,0.00,,,0.09,Wunderground v.1.15,2013-06-24 06:51:00,
2013-06-24 02:54:00,72.0,70.2,30.08,WSW,251,0.0,2.0,94,0.00,,,0.09,Wunderground v.1.15,2013-06-24 06:54:00,
2013-06-24 02:55:00,72.0,70.2,30.08,WSW,251,0.0,2.0,94,0.00,,,0.09,Wunderground v.1.15,2013-06-24 06:55:00,
2013-06-24 02:57:00,72.0,70.2,30.08,WSW,251,0.0,2.0,94,0.00,,,0.09,Wunderground v.1.15,2013-06-24 06:57:00,
2013-06-24 02:59:00,72.0,70.2,30.08,WSW,251,0.0,2.0,94,0.00,,,0.09,Wunderground v.1.15,2013-06-24 06:59:00,
2013-06-24 03:00:00,72.0,70.2,30.08,WSW,251,0.0,0.0,94,0.00,,,0.09,Wunderground v.1.15,2013-06-24 07:00:00,
2013-06-24 03:01:00,72.0,70.2,30.08,WSW,251,0.0,0.0,94,0.00,,,0.09,Wunderground v.1.15,2013-06-24 07:01:00,
2013-06-24 03:02:00,72.0,70.2,30.08,WSW,251,0.0,0.0,94,0.00,,,0.09,Wunderground v.1.15,2013-06-24 07:02:00,
2013-06-24 03:05:00,72.1,70.3,30.07,WSW,251,0.0,0.0,94,0.00,,,0.09,Wunderground v.1.15,2013-06-24 07:05:00,
2013-06-24 03:06:00,72.0,70.2,30.08,WSW,251,0.0,0.0,94,0.00,,,0.09,Wunderground v.1.15,2013-06-24 07:06:00,
2013-06-24 03:09:00,72.0,70.2,30.07,WSW,251,0.0,0.0,94,0.00,,,0.09,Wunderground v.1.15,2013-06-24 07:09:00,
2013-06-24 03:10:00,72.0,70.2,30.07,WSW,251,0.0,0.0,94,0.00,,,0.09,Wunderground v.1.15,2013-06-24 07:10:00,
2013-06-24 03:12:00,72.0,70.2,30.07,WSW,251,0.0,0.0,94,0.00,,,0.09,Wunderground v.1.15,2013-06-24 07:12:00,
2013-06-24 03:14:00,72.0,70.2,30.07,WSW,251,1.0,1.0,94,0.00,,,0.09,Wunderground v.1.15,2013-06-24 07:14:00,
2013-06-24 03:15:00,72.0,70.2,30.07,WSW,251,0.0,1.0,94,0.00,,,0.09,Wunderground v.1.15,2013-06-24 07:15:00,
2013-06-24 03:16:00,72.0,70.2,30.07,WSW,251,0.0,1.0,94,0.00,,,0.09,Wunderground v.1.15,2013-06-24 07:16:00,
2013-06-24 03:18:00,71.8,70.0,30.07,WSW,251,0.0,1.0,94,0.00,,,0.09,Wunderground v.1.15,2013-06-24 07:18:00,
2013-06-24 03:20:00,71.8,70.0,30.07,WSW,251,0.0,0.0,94,0.00,,,0.09,Wunderground v.1.15,2013-06-24 07:20:00,
2013-06-24 03:22:00,71.8,70.0,30.07,WSW,251,0.0,0.0,94,0.00,,,0.09,Wunderground v.1.15,2013-06-24 07:22:00,
2013-06-24 03:24:00,71.8,70.0,30.07,WSW,251,0.0,0.0,94,0.00,,,0.09,Wunderground v.1.15,2013-06-24 07:24:00,
2013-06-24 03:27:00,71.8,70.0,30.07,WSW,251,0.0,0.0,94,0.00,,,0.09,Wunderground v.1.15,2013-06-24 07:27:00,
2013-06-24 03:28:00,71.8,70.0,30.07,WSW,251,0.0,0.0,94,0.00,,,0.09,Wunderground v.1.15,2013-06-24 07:28:00,
2013-06-24 03:31:00,71.8,70.0,30.07,WSW,251,0.0,0.0,94,0.00,,,0.09,Wunderground v.1.15,2013-06-24 07:31:00,
2013-06-24 03:32:00,71.8,70.0,30.07,WSW,243,0.0,3.0,94,0.00,,,0.09,Wunderground v.1.15,2013-06-24 07:32:00,
2013-06-24 03:34:00,71.8,70.0,30.07,WSW,243,0.0,3.0,94,0.00,,,0.09,Wunderground v.1.15,2013-06-24 07:34:00,
2013-06-24 03:36:00,71.8,70.0,30.06,WSW,243,0.0,3.0,94,0.00,,,0.09,Wunderground v.1.15,2013-06-24 07:36:00,
2013-06-24 03:37:00,71.8,70.0,30.06,WSW,243,0.0,3.0,94,0.00,,,0.09,Wunderground v.1.15,2013-06-24 07:37:00,
2013-06-24 03:40:00,71.8,70.0,30.07,SW,233,1.0,3.0,94,0.00,,,0.09,Wunderground v.1.15,2013-06-24 07:40:00,
2013-06-24 03:41:00,71.8,70.0,30.07,WSW,238,1.0,4.0,94,0.00,,,0.09,Wunderground v.1.15,2013-06-24 07:41:00,
2013-06-24 03:43:00,71.8,70.0,30.07,South,188,0.0,4.0,94,0.00,,,0.09,Wunderground v.1.15,2013-06-24 07:43:00,
2013-06-24 03:45:00,71.8,70.0,30.07,South,188,0.0,4.0,94,0.00,,,0.09,Wunderground v.1.15,2013-06-24 07:45:00,
2013-06-24 03:47:00,72.0,70.2,30.07,WSW,248,0.0,4.0,94,0.00,,,0.09,Wunderground v.1.15,2013-06-24 07:47:00,
2013-06-24 03:51:00,72.0,70.2,30.07,WSW,248,0.0,0.0,94,0.00,,,0.09,Wunderground v.1.15,2013-06-24 07:51:00,
2013-06-24 03:52:00,72.0,70.2,30.07,WSW,248,0.0,0.0,94,0.00,,,0.09,Wunderground v.1.15,2013-06-24 07:52:00,
2013-06-24 03:57:00,72.0,70.2,30.07,WSW,248,0.0,1.0,94,0.00,,,0.09,Wunderground v.1.15,2013-06-24 07:57:00,
2013-06-24 03:58:00,72.0,70.2,30.07,WSW,248,0.0,1.0,94,0.00,,,0.09,Wunderground v.1.15,2013-06-24 07:58:00,
2013-06-24 04:02:00,71.8,70.0,30.07,WSW,247,0.0,0.0,94,0.00,,,0.09,Wunderground v.1.15,2013-06-24 08:02:00,
2013-06-24 04:03:00,71.8,70.0,30.07,WSW,247,0.0,0.0,94,0.00,,,0.09,Wunderground v.1.15,2013-06-24 08:03:00,
2013-06-24 04:04:00,71.8,70.0,30.07,WSW,247,0.0,0.0,94,0.00,,,0.09,Wunderground v.1.15,2013-06-24 08:04:00,
2013-06-24 04:07:00,71.8,70.0,30.07,WSW,247,0.0,0.0,94,0.00,,,0.09,Wunderground v.1.15,2013-06-24 08:07:00,
2013-06-24 04:08:00,71.8,70.0,30.07,WSW,246,1.0,3.0,94,0.00,,,0.09,Wunderground v.1.15,2013-06-24 08:08:00,
2013-06-24 04:11:00,71.8,70.3,30.06,WSW,246,0.0,0.0,95,0.00,,,0.09,Wunderground v.1.15,2013-06-24 08:11:00,
2013-06-24 04:13:00,71.8,70.3,30.06,WSW,246,0.0,0.0,95,0.00,,,0.09,Wunderground v.1.15,2013-06-24 08:13:00,
2013-06-24 04:14:00,71.8,70.3,30.06,WSW,246,0.0,0.0,95,0.00,,,0.09,Wunderground v.1.15,2013-06-24 08:14:00,
2013-06-24 04:16:00,71.8,70.3,30.06,WSW,246,4.0,4.0,95,0.00,,,0.09,Wunderground v.1.15,2013-06-24 08:16:00,
2013-06-24 04:19:00,71.8,70.3,30.06,WSW,245,0.0,4.0,95,0.00,,,0.09,Wunderground v.1.15,2013-06-24 08:19:00,
2013-06-24 04:20:00,71.8,70.3,30.07,WSW,245,2.0,2.0,95,0.00,,,0.09,Wunderground v.1.15,2013-06-24 08:20:00,
2013-06-24 04:23:00,71.8,70.3,30.07,WSW,245,0.0,2.0,95,0.00,,,0.09,Wunderground v.1.15,2013-06-24 08:23:00,
2013-06-24 04:24:00,71.8,70.3,30.07,WSW,245,0.0,2.0,95,0.00,,,0.09,Wunderground v.1.15,2013-06-24 08:24:00,
2013-06-24 04:26:00,71.8,70.3,30.07,WSW,245,0.0,2.0,95,0.00,,,0.09,Wunderground v.1.15,2013-06-24 08:26:00,
2013-06-24 04:29:00,71.8,70.3,30.07,WSW,250,0.0,3.0,95,0.00,,,0.09,Wunderground v.1.15,2013-06-24 08:29:00,
2013-06-24 04:30:00,71.8,70.3,30.06,WSW,250,0.0,0.0,95,0.00,,,0.09,Wunderground v.1.15,2013-06-24 08:30:00,
2013-06-24 04:32:00,71.8,70.3,30.06,WSW,250,0.0,0.0,95,0.00,,,0.09,Wunderground v.1.15,2013-06-24 08:32:00,
2013-06-24 04:35:00,72.0,70.5,30.07,WSW,246,5.0,5.0,95,0.00,,,0.09,Wunderground v.1.15,2013-06-24 08:35:00,
2013-06-24 04:36:00,72.0,70.5,30.07,West,275,0.0,6.0,95,0.00,,,0.09,Wunderground v.1.15,2013-06-24 08:36:00,
2013-06-24 04:38:00,72.0,70.5,30.07,WSW,238,0.0,6.0,95,0.00,,,0.09,Wunderground v.1.15,2013-06-24 08:38:00,
2013-06-24 04:40:00,72.0,70.5,30.07,WSW,238,0.0,0.0,95,0.00,,,0.09,Wunderground v.1.15,2013-06-24 08:40:00,
2013-06-24 04:42:00,72.1,70.6,30.07,WSW,238,0.0,0.0,95,0.00,,,0.09,Wunderground v.1.15,2013-06-24 08:42:00,
2013-06-24 04:43:00,72.1,70.6,30.07,WSW,238,0.0,1.0,95,0.00,,,0.09,Wunderground v.1.15,2013-06-24 08:43:00,
2013-06-24 04:45:00,72.1,70.6,30.07,WSW,238,0.0,1.0,95,0.00,,,0.09,Wunderground v.1.15,2013-06-24 08:45:00,
2013-06-24 04:48:00,72.1,70.6,30.07,WSW,240,0.0,2.0,95,0.00,,,0.09,Wunderground v.1.15,2013-06-24 08:48:00,
2013-06-24 04:50:00,72.1,70.6,30.07,WSW,240,0.0,0.0,95,0.00,,,0.09,Wunderground v.1.15,2013-06-24 08:50:00,
2013-06-24 04:51:00,72.1,70.6,30.07,WSW,240,0.0,0.0,95,0.00,,,0.09,Wunderground v.1.15,2013-06-24 08:51:00,
2013-06-24 04:54:00,72.1,70.6,30.07,WNW,284,0.0,3.0,95,0.00,,,0.09,Wunderground v.1.15,2013-06-24 08:54:00,
2013-06-24 04:56:00,72.1,70.6,30.07,West,268,1.0,3.0,95,0.00,,,0.09,Wunderground v.1.15,2013-06-24 08:56:00,
2013-06-24 04:57:00,72.1,70.6,30.07,West,268,1.0,3.0,95,0.00,,,0.09,Wunderground v.1.15,2013-06-24 08:57:00,
2013-06-24 04:58:00,72.1,70.6,30.07,West,268,1.0,3.0,95,0.00,,,0.09,Wunderground v.1.15,2013-06-24 08:58:00,
2013-06-24 05:02:00,72.1,70.6,30.07,West,268,0.0,0.0,95,0.00,,,0.09,Wunderground v.1.15,2013-06-24 09:02:00,
2013-06-24 05:03:00,72.1,70.6,30.07,West,268,2.0,2.0,95,0.00,,,0.09,Wunderground v.1.15,2013-06-24 09:03:00,
2013-06-24 05:04:00,72.1,70.6,30.07,WSW,253,0.0,3.0,95,0.00,,,0.09,Wunderground v.1.15,2013-06-24 09:04:00,
2013-06-24 05:08:00,72.1,70.6,30.07,WSW,254,0.0,3.0,95,0.00,,,0.09,Wunderground v.1.15,2013-06-24 09:08:00,
2013-06-24 05:10:00,72.1,70.6,30.07,West,271,0.0,0.0,95,0.00,,,0.09,Wunderground v.1.15,2013-06-24 09:10:00,
2013-06-24 05:14:00,72.1,70.6,30.07,West,271,0.0,0.0,95,0.00,,,0.09,Wunderground v.1.15,2013-06-24 09:14:00,
2013-06-24 05:15:00,72.1,70.6,30.06,West,271,0.0,0.0,95,0.00,,,0.09,Wunderground v.1.15,2013-06-24 09:15:00,
2013-06-24 05:16:00,72.1,70.6,30.07,West,271,0.0,0.0,95,0.00,,,0.09,Wunderground v.1.15,2013-06-24 09:16:00,
2013-06-24 05:19:00,72.1,70.6,30.07,SW,222,0.0,1.0,95,0.00,,,0.09,Wunderground v.1.15,2013-06-24 09:19:00,
2013-06-24 05:21:00,72.1,70.6,30.07,SW,222,0.0,0.0,95,0.00,,,0.09,Wunderground v.1.15,2013-06-24 09:21:00,
2013-06-24 05:24:00,72.1,70.6,30.07,SW,222,0.0,0.0,95,0.00,,,0.09,Wunderground v.1.15,2013-06-24 09:24:00,
2013-06-24 05:26:00,72.1,70.6,30.07,SW,222,0.0,0.0,95,0.00,,,0.09,Wunderground v.1.15,2013-06-24 09:26:00,
2013-06-24 05:28:00,72.1,70.6,30.07,SW,222,0.0,0.0,95,0.00,,,0.09,Wunderground v.1.15,2013-06-24 09:28:00,
2013-06-24 05:30:00,72.1,70.6,30.07,SW,222,0.0,0.0,95,0.00,,,0.09,Wunderground v.1.15,2013-06-24 09:30:00,
2013-06-24 05:31:00,72.1,70.6,30.07,SW,222,0.0,0.0,95,0.00,,,0.09,Wunderground v.1.15,2013-06-24 09:31:00,
2013-06-24 05:35:00,72.1,70.6,30.07,SW,225,0.0,5.0,95,0.00,,,0.09,Wunderground v.1.15,2013-06-24 09:35:00,
2013-06-24 05:36:00,72.1,70.6,30.07,SW,225,0.0,5.0,95,0.00,,,0.09,Wunderground v.1.15,2013-06-24 09:36:00,
2013-06-24 05:40:00,72.1,70.6,30.07,West,277,1.0,1.0,95,0.00,,,0.09,Wunderground v.1.15,2013-06-24 09:40:00,
2013-06-24 05:41:00,72.1,70.6,30.07,West,277,0.0,1.0,95,0.00,,,0.09,Wunderground v.1.15,2013-06-24 09:41:00,
2013-06-24 05:45:00,72.1,70.6,30.07,West,273,0.0,2.0,95,0.00,,,0.09,Wunderground v.1.15,2013-06-24 09:45:00,
2013-06-24 05:47:00,72.1,70.6,30.07,West,273,0.0,2.0,95,0.00,,,0.09,Wunderground v.1.15,2013-06-24 09:47:00,
2013-06-24 05:48:00,72.1,70.6,30.07,West,273,0.0,2.0,95,0.00,,,0.09,Wunderground v.1.15,2013-06-24 09:48:00,
2013-06-24 05:51:00,72.1,70.6,30.07,WSW,244,0.0,3.0,95,0.00,,,0.09,Wunderground v.1.15,2013-06-24 09:51:00,
2013-06-24 05:52:00,72.1,70.6,30.07,WSW,244,0.0,3.0,95,0.00,,,0.09,Wunderground v.1.15,2013-06-24 09:52:00,
2013-06-24 05:55:00,72.1,70.6,30.07,WSW,244,0.0,3.0,95,0.00,,,0.09,Wunderground v.1.15,2013-06-24 09:55:00,
2013-06-24 05:58:00,72.1,70.6,30.07,WSW,244,0.0,3.0,95,0.00,,,0.09,Wunderground v.1.15,2013-06-24 09:58:00,
2013-06-24 06:00:00,72.1,70.6,30.07,West,269,0.0,0.0,95,0.00,,,0.09,Wunderground v.1.15,2013-06-24 10:00:00,
2013-06-24 06:03:00,72.1,70.6,30.07,West,269,0.0,0.0,95,0.00,,,0.09,Wunderground v.1.15,2013-06-24 10:03:00,
2013-06-24 06:07:00,72.1,70.6,30.07,WNW,282,1.0,2.0,95,0.00,,,0.09,Wunderground v.1.15,2013-06-24 10:07:00,
2013-06-24 06:08:00,72.1,70.6,30.07,WNW,282,0.0,2.0,95,0.00,,,0.09,Wunderground v.1.15,2013-06-24 10:08:00,
2013-06-24 06:09:00,72.1,70.6,30.07,SW,222,0.0,4.0,95,0.00,,,0.09,Wunderground v.1.15,2013-06-24 10:09:00,
2013-06-24 06:10:00,72.3,70.8,30.07,SW,222,0.0,0.0,95,0.00,,,0.09,Wunderground v.1.15,2013-06-24 10:10:00,
2013-06-24 06:12:00,72.3,70.8,30.07,SW,223,0.0,1.0,95,0.00,,,0.09,Wunderground v.1.15,2013-06-24 10:12:00,
2013-06-24 06:13:00,72.3,70.8,30.07,SW,223,0.0,2.0,95,0.00,,,0.09,Wunderground v.1.15,2013-06-24 10:13:00,
2013-06-24 06:14:00,72.3,70.8,30.07,SW,223,1.0,2.0,95,0.00,,,0.09,Wunderground v.1.15,2013-06-24 10:14:00,
2013-06-24 06:16:00,72.3,70.8,30.07,SW,223,0.0,2.0,95,0.00,,,0.09,Wunderground v.1.15,2013-06-24 10:16:00,
2013-06-24 06:19:00,72.3,70.8,30.07,SW,223,0.0,2.0,95,0.00,,,0.09,Wunderground v.1.15,2013-06-24 10:19:00,
2013-06-24 06:20:00,72.3,70.8,30.07,SW,223,0.0,0.0,95,0.00,,,0.09,Wunderground v.1.15,2013-06-24 10:20:00,
2013-06-24 06:22:00,72.3,70.8,30.07,SW,223,0.0,1.0,95,0.00,,,0.09,Wunderground v.1.15,2013-06-24 10:22:00,
2013-06-24 06:25:00,72.3,70.8,30.07,SW,227,0.0,3.0,95,0.00,,,0.09,Wunderground v.1.15,2013-06-24 10:25:00,
2013-06-24 06:27:00,72.5,71.0,30.08,West,263,0.0,4.0,95,0.00,,,0.09,Wunderground v.1.15,2013-06-24 10:27:00,
2013-06-24 06:29:00,72.5,71.0,30.08,WSW,252,0.0,4.0,95,0.00,,,0.09,Wunderground v.1.15,2013-06-24 10:29:00,
2013-06-24 06:30:00,72.5,71.0,30.08,WSW,252,0.0,1.0,95,0.00,,,0.09,Wunderground v.1.15,2013-06-24 10:30:00,
2013-06-24 06:31:00,72.5,71.0,30.08,WSW,252,0.0,1.0,95,0.00,,,0.09,Wunderground v.1.15,2013-06-24 10:31:00,
2013-06-24 06:34:00,72.5,71.0,30.07,WSW,253,0.0,1.0,95,0.00,,,0.09,Wunderground v.1.15,2013-06-24 10:34:00,
2013-06-24 06:35:00,72.7,71.2,30.07,WSW,252,0.0,1.0,95,0.00,,,0.09,Wunderground v.1.15,2013-06-24 10:35:00,
2013-06-24 06:37:00,72.7,71.2,30.07,West,261,0.0,2.0,95,0.00,,,0.09,Wunderground v.1.15,2013-06-24 10:37:00,
2013-06-24 06:39:00,72.7,71.2,30.07,West,261,1.0,2.0,95,0.00,,,0.09,Wunderground v.1.15,2013-06-24 10:39:00,
2013-06-24 06:40:00,72.7,71.2,30.08,West,261,0.0,1.0,95,0.00,,,0.09,Wunderground v.1.15,2013-06-24 10:40:00,
2013-06-24 06:41:00,72.7,71.2,30.07,West,259,2.0,3.0,95,0.00,,,0.09,Wunderground v.1.15,2013-06-24 10:41:00,
2013-06-24 06:42:00,72.8,71.3,30.07,West,259,2.0,3.0,95,0.00,,,0.09,Wunderground v.1.15,2013-06-24 10:42:00,
2013-06-24 06:46:00,72.8,71.3,30.07,WSW,240,0.0,5.0,95,0.00,,,0.09,Wunderground v.1.15,2013-06-24 10:46:00,
2013-06-24 06:47:00,72.8,71.3,30.08,WSW,240,0.0,5.0,95,0.00,,,0.09,Wunderground v.1.15,2013-06-24 10:47:00,
2013-06-24 06:49:00,73.0,71.5,30.08,WSW,238,0.0,5.0,95,0.00,,,0.09,Wunderground v.1.15,2013-06-24 10:49:00,
2013-06-24 06:51:00,73.0,71.5,30.08,WSW,257,2.0,4.0,95,0.00,,,0.09,Wunderground v.1.15,2013-06-24 10:51:00,
2013-06-24 06:52:00,73.0,71.5,30.07,WSW,246,3.0,4.0,95,0.00,,,0.09,Wunderground v.1.15,2013-06-24 10:52:00,
2013-06-24 06:53:00,73.0,71.5,30.08,WSW,245,2.0,4.0,95,0.00,,,0.09,Wunderground v.1.15,2013-06-24 10:53:00,
2013-06-24 06:56:00,73.0,71.5,30.08,WSW,246,0.0,4.0,95,0.00,,,0.09,Wunderground v.1.15,2013-06-24 10:56:00,
2013-06-24 06:57:00,73.2,71.7,30.08,WSW,246,1.0,4.0,95,0.00,,,0.09,Wunderground v.1.15,2013-06-24 10:57:00,
2013-06-24 06:58:00,73.2,71.7,30.08,WSW,246,0.0,4.0,95,0.00,,,0.09,Wunderground v.1.15,2013-06-24 10:58:00,
2013-06-24 06:59:00,73.2,71.7,30.08,WSW,246,0.0,4.0,95,0.00,,,0.09,Wunderground v.1.15,2013-06-24 10:59:00,
2013-06-24 07:01:00,73.2,71.7,30.08,WSW,246,0.0,1.0,95,0.00,,,0.09,Wunderground v.1.15,2013-06-24 11:01:00,
2013-06-24 07:03:00,73.3,71.8,30.08,West,263,1.0,2.0,95,0.00,,,0.09,Wunderground v.1.15,2013-06-24 11:03:00,
2013-06-24 07:04:00,73.3,71.8,30.08,West,263,0.0,2.0,95,0.00,,,0.09,Wunderground v.1.15,2013-06-24 11:04:00,
2013-06-24 07:06:00,73.5,72.0,30.08,WSW,245,0.0,5.0,95,0.00,,,0.09,Wunderground v.1.15,2013-06-24 11:06:00,
2013-06-24 07:09:00,73.5,72.0,30.08,West,259,0.0,5.0,95,0.00,,,0.09,Wunderground v.1.15,2013-06-24 11:09:00,
2013-06-24 07:11:00,73.5,72.0,30.08,WSW,250,1.0,5.0,95,0.00,,,0.09,Wunderground v.1.15,2013-06-24 11:11:00,
2013-06-24 07:14:00,73.7,72.2,30.08,West,263,0.0,7.0,95,0.00,,,0.09,Wunderground v.1.15,2013-06-24 11:14:00,
2013-06-24 07:15:00,73.9,72.4,30.08,WSW,257,0.0,7.0,95,0.00,,,0.09,Wunderground v.1.15,2013-06-24 11:15:00,
2013-06-24 07:16:00,73.9,72.4,30.08,WSW,254,0.0,7.0,95,0.00,,,0.09,Wunderground v.1.15,2013-06-24 11:16:00,
2013-06-24 07:19:00,73.9,72.4,30.08,WSW,249,1.0,7.0,95,0.00,,,0.09,Wunderground v.1.15,2013-06-24 11:19:00,
2013-06-24 07:21:00,73.9,72.4,30.08,WSW,249,0.0,1.0,95,0.00,,,0.09,Wunderground v.1.15,2013-06-24 11:21:00,
2013-06-24 07:23:00,74.0,72.5,30.08,WSW,246,0.0,1.0,95,0.00,,,0.09,Wunderground v.1.15,2013-06-24 11:23:00,
2013-06-24 07:26:00,74.2,72.7,30.07,SW,236,0.0,1.0,95,0.00,,,0.09,Wunderground v.1.15,2013-06-24 11:26:00,
2013-06-24 07:28:00,74.2,72.4,30.07,SW,229,4.0,4.0,94,0.00,,,0.09,Wunderground v.1.15,2013-06-24 11:28:00,
2013-06-24 07:31:00,74.2,72.4,30.07,SW,234,0.0,5.0,94,0.00,,,0.09,Wunderground v.1.15,2013-06-24 11:31:00,
2013-06-24 07:32:00,74.2,72.4,30.07,NW,306,0.0,5.0,94,0.00,,,0.09,Wunderground v.1.15,2013-06-24 11:32:00,
2013-06-24 07:33:00,74.4,72.6,30.07,NW,306,0.0,5.0,94,0.00,,,0.09,Wunderground v.1.15,2013-06-24 11:33:00,
2013-06-24 07:34:00,74.4,72.6,30.07,NW,307,2.0,5.0,94,0.00,,,0.09,Wunderground v.1.15,2013-06-24 11:34:00,
2013-06-24 07:37:00,74.6,72.8,30.07,WSW,253,0.0,6.0,94,0.00,,,0.09,Wunderground v.1.15,2013-06-24 11:37:00,
2013-06-24 07:38:00,74.6,72.8,30.07,West,263,1.0,6.0,94,0.00,,,0.00,Wunderground v.1.15,2013-06-24 11:38:00,
2013-06-24 07:42:00,74.7,72.9,30.07,SW,223,0.0,3.0,94,0.00,,,0.00,Wunderground v.1.15,2013-06-24 11:42:00,
2013-06-24 07:43:00,74.7,72.9,30.07,West,259,0.0,5.0,94,0.00,,,0.00,Wunderground v.1.15,2013-06-24 11:43:00,
2013-06-24 07:48:00,74.9,73.1,30.07,SW,224,1.0,5.0,94,0.00,,,0.00,Wunderground v.1.15,2013-06-24 11:48:00,
2013-06-24 07:49:00,74.9,73.1,30.08,SW,225,0.0,5.0,94,0.00,,,0.00,Wunderground v.1.15,2013-06-24 11:49:00,
2013-06-24 07:53:00,75.1,72.9,30.07,WSW,247,3.0,4.0,93,0.00,,,0.00,Wunderground v.1.15,2013-06-24 11:53:00,
2013-06-24 07:55:00,75.1,72.9,30.07,SSW,204,2.0,6.0,93,0.00,,,0.00,Wunderground v.1.15,2013-06-24 11:55:00,
2013-06-24 07:56:00,75.1,72.9,30.07,SSW,204,3.0,6.0,93,0.00,,,0.00,Wunderground v.1.15,2013-06-24 11:56:00,
2013-06-24 07:59:00,75.3,73.1,30.08,WSW,247,0.0,6.0,93,0.00,,,0.00,Wunderground v.1.15,2013-06-24 11:59:00,
2013-06-24 08:00:00,75.3,73.1,30.08,SW,236,1.0,3.0,93,0.00,,,0.00,Wunderground v.1.15,2013-06-24 12:00:00,
2013-06-24 08:01:00,75.3,73.1,30.08,SW,236,2.0,3.0,93,0.00,,,0.00,Wunderground v.1.15,2013-06-24 12:01:00,
2013-06-24 08:04:00,75.4,73.2,30.08,SW,230,1.0,3.0,93,0.00,,,0.00,Wunderground v.1.15,2013-06-24 12:04:00,
2013-06-24 08:06:00,75.4,73.2,30.08,SSW,210,3.0,3.0,93,0.00,,,0.00,Wunderground v.1.15,2013-06-24 12:06:00,
2013-06-24 08:07:00,75.6,73.4,30.08,SSW,211,0.0,3.0,93,0.00,,,0.00,Wunderground v.1.15,2013-06-24 12:07:00,
2013-06-24 08:09:00,75.8,73.3,30.08,SW,234,0.0,7.0,92,0.00,,,0.00,Wunderground v.1.15,2013-06-24 12:09:00,
2013-06-24 08:11:00,75.8,73.3,30.08,NW,317,0.0,2.0,92,0.00,,,0.00,Wunderground v.1.15,2013-06-24 12:11:00,
2013-06-24 08:12:00,75.8,73.3,30.08,NW,317,0.0,2.0,92,0.00,,,0.00,Wunderground v.1.15,2013-06-24 12:12:00,
2013-06-24 08:14:00,76.0,73.5,30.08,NW,317,0.0,2.0,92,0.00,,,0.00,Wunderground v.1.15,2013-06-24 12:14:00,
2013-06-24 08:17:00,76.1,73.3,30.08,WSW,249,0.0,2.0,91,0.00,,,0.00,Wunderground v.1.15,2013-06-24 12:17:00,
2013-06-24 08:18:00,76.1,73.3,30.08,WSW,249,0.0,2.0,91,0.00,,,0.00,Wunderground v.1.15,2013-06-24 12:18:00,
2013-06-24 08:19:00,76.1,73.3,30.08,WSW,243,0.0,2.0,91,0.00,,,0.00,Wunderground v.1.15,2013-06-24 12:19:00,
2013-06-24 08:20:00,76.3,73.5,30.08,WNW,287,0.0,4.0,91,0.00,,,0.00,Wunderground v.1.15,2013-06-24 12:20:00,
2013-06-24 08:23:00,76.3,73.1,30.08,WSW,249,0.0,4.0,90,0.00,,,0.00,Wunderground v.1.15,2013-06-24 12:23:00,
2013-06-24 08:24:00,76.3,73.1,30.08,WSW,248,0.0,4.0,90,0.00,,,0.00,Wunderground v.1.15,2013-06-24 12:24:00,
2013-06-24 08:25:00,76.5,73.3,30.08,NW,325,0.0,4.0,90,0.00,,,0.00,Wunderground v.1.15,2013-06-24 12:25:00,
2013-06-24 08:26:00,76.5,73.3,30.08,SSW,209,3.0,4.0,90,0.00,,,0.00,Wunderground v.1.15,2013-06-24 12:26:00,
2013-06-24 08:29:00,76.5,73.3,30.08,WNW,297,1.0,4.0,90,0.00,,,0.00,Wunderground v.1.15,2013-06-24 12:29:00,
2013-06-24 08:31:00,76.7,73.2,30.08,SW,222,5.0,5.0,89,0.00,,,0.00,Wunderground v.1.15,2013-06-24 12:31:00,
2013-06-24 08:34:00,76.7,72.9,30.07,SSW,195,1.0,5.0,88,0.00,,,0.00,Wunderground v.1.15,2013-06-24 12:34:00,
2013-06-24 08:35:00,76.8,73.0,30.08,West,272,0.0,5.0,88,0.00,,,0.00,Wunderground v.1.15,2013-06-24 12:35:00,
2013-06-24 08:36:00,76.8,73.0,30.07,NW,313,0.0,5.0,88,0.00,,,0.00,Wunderground v.1.15,2013-06-24 12:36:00,
2013-06-24 08:39:00,77.0,73.2,30.08,NW,319,2.0,5.0,88,0.00,,,0.00,Wunderground v.1.15,2013-06-24 12:39:00,
2013-06-24 08:40:00,77.2,73.0,30.08,NNW,329,3.0,3.0,87,0.00,,,0.00,Wunderground v.1.15,2013-06-24 12:40:00,
2013-06-24 08:44:00,77.4,72.9,30.08,SW,232,1.0,4.0,86,0.00,,,0.00,Wunderground v.1.15,2013-06-24 12:44:00,
2013-06-24 08:45:00,77.4,72.9,30.08,SW,232,0.0,4.0,86,0.00,,,0.00,Wunderground v.1.15,2013-06-24 12:45:00,
2013-06-24 08:46:00,77.4,72.9,30.08,SW,232,0.0,4.0,86,0.00,,,0.00,Wunderground v.1.15,2013-06-24 12:46:00,
2013-06-24 08:49:00,77.7,72.8,30.08,NW,318,3.0,4.0,85,0.00,,,0.00,Wunderground v.1.15,2013-06-24 12:49:00,
2013-06-24 08:50:00,77.9,73.0,30.08,SW,223,0.0,1.0,85,0.00,,,0.00,Wunderground v.1.15,2013-06-24 12:50:00,
2013-06-24 08:51:00,77.9,73.0,30.08,SSW,192,1.0,1.0,85,0.00,,,0.00,Wunderground v.1.15,2013-06-24 12:51:00,
2013-06-24 08:55:00,78.1,72.9,30.08,WSW,244,1.0,7.0,84,0.00,,,0.00,Wunderground v.1.15,2013-06-24 12:55:00,
2013-06-24 08:56:00,78.3,72.7,30.08,WSW,250,1.0,7.0,83,0.00,,,0.00,Wunderground v.1.15,2013-06-24 12:56:00,
2013-06-24 08:57:00,78.3,72.7,30.08,WSW,256,3.0,7.0,83,0.00,,,0.00,Wunderground v.1.15,2013-06-24 12:57:00,
2013-06-24 09:00:00,78.5,72.5,30.08,SW,235,6.0,6.0,82,0.00,,,0.00,Wunderground v.1.15,2013-06-24 13:00:00,
2013-06-24 09:01:00,78.6,72.6,30.08,SW,236,0.0,6.0,82,0.00,,,0.00,Wunderground v.1.15,2013-06-24 13:01:00,
2013-06-24 09:02:00,78.6,72.6,30.08,SW,236,0.0,6.0,82,0.00,,,0.00,Wunderground v.1.15,2013-06-24 13:02:00,
2013-06-24 09:06:00,79.0,73.0,30.08,NW,312,3.0,6.0,82,0.00,,,0.00,Wunderground v.1.15,2013-06-24 13:06:00,
2013-06-24 09:07:00,79.0,73.0,30.08,NW,309,2.0,6.0,82,0.00,,,0.00,Wunderground v.1.15,2013-06-24 13:07:00,
2013-06-24 09:11:00,79.2,72.5,30.08,WSW,242,0.0,6.0,80,0.00,,,0.00,Wunderground v.1.15,2013-06-24 13:11:00,
2013-06-24 09:12:00,79.2,72.9,30.08,WSW,240,0.0,6.0,81,0.00,,,0.00,Wunderground v.1.15,2013-06-24 13:12:00,
2013-06-24 09:14:00,79.4,72.7,30.08,SW,234,3.0,6.0,80,0.00,,,0.00,Wunderground v.1.15,2013-06-24 13:14:00,
2013-06-24 09:17:00,79.6,72.9,30.08,NW,321,0.0,6.0,80,0.00,,,0.00,Wunderground v.1.15,2013-06-24 13:17:00,
2013-06-24 09:21:00,79.9,72.4,30.07,NW,325,3.0,4.0,78,0.00,,,0.00,Wunderground v.1.15,2013-06-24 13:21:00,
2013-06-24 09:22:00,79.9,72.4,30.07,NW,306,2.0,9.0,78,0.00,,,0.00,Wunderground v.1.15,2013-06-24 13:22:00,
2013-06-24 09:23:00,79.9,72.4,30.07,NW,306,2.0,9.0,78,0.00,,,0.00,Wunderground v.1.15,2013-06-24 13:23:00,
2013-06-24 09:26:00,79.9,72.4,30.07,West,264,2.0,9.0,78,0.00,,,0.00,Wunderground v.1.15,2013-06-24 13:26:00,
2013-06-24 09:28:00,80.1,72.6,30.07,NW,304,2.0,9.0,78,0.00,,,0.00,Wunderground v.1.15,2013-06-24 13:28:00,
2013-06-24 09:32:00,80.3,72.0,30.07,WNW,298,4.0,11.0,76,0.00,,,0.00,Wunderground v.1.15,2013-06-24 13:32:00,
2013-06-24 09:33:00,80.3,72.0,30.07,WNW,285,2.0,11.0,76,0.00,,,0.00,Wunderground v.1.15,2013-06-24 13:33:00,
2013-06-24 09:34:00,80.3,72.0,30.07,NW,321,3.0,11.0,76,0.00,,,0.00,Wunderground v.1.15,2013-06-24 13:34:00,
2013-06-24 09:38:00,80.7,72.4,30.07,NW,321,1.0,11.0,76,0.00,,,0.00,Wunderground v.1.15,2013-06-24 13:38:00,
2013-06-24 09:39:00,80.9,72.6,30.07,NW,321,6.0,11.0,76,0.00,,,0.00,Wunderground v.1.15,2013-06-24 13:39:00,
2013-06-24 09:40:00,80.9,72.2,30.07,WNW,296,4.0,4.0,75,0.00,,,0.00,Wunderground v.1.15,2013-06-24 13:40:00,
2013-06-24 09:41:00,80.9,72.2,30.07,NW,315,3.0,7.0,75,0.00,,,0.00,Wunderground v.1.15,2013-06-24 13:41:00,
2013-06-24 09:45:00,81.2,72.5,30.07,South,178,1.0,7.0,75,0.00,,,0.00,Wunderground v.1.15,2013-06-24 13:45:00,
2013-06-24 09:46:00,81.2,72.5,30.07,SW,226,3.0,7.0,75,0.00,,,0.00,Wunderground v.1.15,2013-06-24 13:46:00,
2013-06-24 09:50:00,81.4,72.3,30.07,West,264,0.0,3.0,74,0.00,,,0.00,Wunderground v.1.15,2013-06-24 13:50:00,
2013-06-24 09:51:00,81.4,72.3,30.07,West,264,0.0,3.0,74,0.00,,,0.00,Wunderground v.1.15,2013-06-24 13:51:00,
2013-06-24 09:52:00,81.4,71.9,30.07,NW,308,2.0,5.0,73,0.00,,,0.00,Wunderground v.1.15,2013-06-24 13:52:00,
2013-06-24 09:56:00,81.6,72.5,30.07,WNW,294,1.0,8.0,74,0.00,,,0.00,Wunderground v.1.15,2013-06-24 13:56:00,
2013-06-24 09:57:00,81.6,72.5,30.07,WNW,294,0.0,8.0,74,0.00,,,0.00,Wunderground v.1.15,2013-06-24 13:57:00,
2013-06-24 09:59:00,81.8,72.3,30.07,NW,309,3.0,8.0,73,0.00,,,0.00,Wunderground v.1.15,2013-06-24 13:59:00,
2013-06-24 10:01:00,82.0,72.9,30.07,NW,307,2.0,2.0,74,0.00,,,0.00,Wunderground v.1.15,2013-06-24 14:01:00,
2013-06-24 10:03:00,82.0,72.5,30.07,NNW,347,6.0,7.0,73,0.00,,,0.00,Wunderground v.1.15,2013-06-24 14:03:00,
2013-06-24 10:04:00,82.0,72.5,30.07,WNW,292,0.0,7.0,73,0.00,,,0.00,Wunderground v.1.15,2013-06-24 14:04:00,
2013-06-24 10:07:00,82.4,73.3,30.07,WNW,303,2.0,7.0,74,0.00,,,0.00,Wunderground v.1.15,2013-06-24 14:07:00,
2013-06-24 10:10:00,82.6,73.1,30.07,WNW,301,2.0,3.0,73,0.00,,,0.00,Wunderground v.1.15,2013-06-24 14:10:00,
2013-06-24 10:12:00,82.8,72.8,30.07,WSW,255,1.0,5.0,72,0.00,,,0.00,Wunderground v.1.15,2013-06-24 14:12:00,
2013-06-24 10:16:00,82.8,72.8,30.07,WNW,296,0.0,6.0,72,0.00,,,0.00,Wunderground v.1.15,2013-06-24 14:16:00,
2013-06-24 10:17:00,82.8,72.8,30.07,WNW,295,0.0,6.0,72,0.00,,,0.00,Wunderground v.1.15,2013-06-24 14:17:00,
2013-06-24 10:19:00,83.0,72.6,30.07,NW,325,4.0,10.0,71,0.00,,,0.00,Wunderground v.1.15,2013-06-24 14:19:00,
2013-06-24 10:21:00,83.0,73.0,30.07,West,279,2.0,2.0,72,0.00,,,0.00,Wunderground v.1.15,2013-06-24 14:21:00,
2013-06-24 10:24:00,83.0,72.6,30.07,NW,304,0.0,9.0,71,0.00,,,0.00,Wunderground v.1.15,2013-06-24 14:24:00,
2013-06-24 10:25:00,83.0,72.6,30.07,North,9,6.0,9.0,71,0.00,,,0.00,Wunderground v.1.15,2013-06-24 14:25:00,
2013-06-24 10:26:00,83.0,72.6,30.07,NW,319,5.0,9.0,71,0.00,,,0.00,Wunderground v.1.15,2013-06-24 14:26:00,
2013-06-24 10:29:00,83.2,72.8,30.07,NW,319,0.0,9.0,71,0.00,,,0.00,Wunderground v.1.15,2013-06-24 14:29:00,
2013-06-24 10:31:00,83.4,73.4,30.07,NW,319,0.0,2.0,72,0.00,,,0.00,Wunderground v.1.15,2013-06-24 14:31:00,
2013-06-24 10:32:00,83.6,73.6,30.07,NW,319,1.0,2.0,72,0.00,,,0.00,Wunderground v.1.15,2013-06-24 14:32:00,
2013-06-24 10:34:00,83.8,73.0,30.07,NW,317,0.0,4.0,70,0.00,,,0.00,Wunderground v.1.15,2013-06-24 14:34:00,
2013-06-24 10:36:00,84.0,72.7,30.07,West,262,2.0,4.0,69,0.00,,,0.00,Wunderground v.1.15,2013-06-24 14:36:00,
2013-06-24 10:37:00,84.1,72.8,30.07,West,263,0.0,4.0,69,0.00,,,0.00,Wunderground v.1.15,2013-06-24 14:37:00,
2013-06-24 10:40:00,84.5,73.2,30.07,WNW,288,1.0,2.0,69,0.00,,,0.00,Wunderground v.1.15,2013-06-24 14:40:00,
2013-06-24 10:42:00,84.7,73.0,30.07,NW,319,4.0,5.0,68,0.00,,,0.00,Wunderground v.1.15,2013-06-24 14:42:00,
2013-06-24 10:43:00,84.7,73.0,30.07,NW,319,1.0,5.0,68,0.00,,,0.00,Wunderground v.1.15,2013-06-24 14:43:00,
2013-06-24 10:45:00,84.7,72.5,30.07,NW,309,1.0,5.0,67,0.00,,,0.00,Wunderground v.1.15,2013-06-24 14:45:00,
2013-06-24 10:47:00,84.9,73.2,30.07,NW,307,0.0,5.0,68,0.00,,,0.00,Wunderground v.1.15,2013-06-24 14:47:00,
2013-06-24 10:49:00,84.9,72.7,30.07,SW,232,3.0,5.0,67,0.00,,,0.00,Wunderground v.1.15,2013-06-24 14:49:00,
2013-06-24 10:51:00,84.9,72.7,30.07,WNW,300,2.0,6.0,67,0.00,,,0.00,Wunderground v.1.15,2013-06-24 14:51:00,
2013-06-24 10:52:00,85.1,72.9,30.07,SSW,199,1.0,6.0,67,0.00,,,0.00,Wunderground v.1.15,2013-06-24 14:52:00,
2013-06-24 10:54:00,85.1,72.5,30.07,West,271,1.0,6.0,66,0.00,,,0.00,Wunderground v.1.15,2013-06-24 14:54:00,
2013-06-24 10:56:00,85.3,73.1,30.07,SSE,166,2.0,6.0,67,0.00,,,0.00,Wunderground v.1.15,2013-06-24 14:56:00,
2013-06-24 10:57:00,85.3,72.2,30.07,NW,315,4.0,6.0,65,0.00,,,0.00,Wunderground v.1.15,2013-06-24 14:57:00,
2013-06-24 10:58:00,85.3,72.6,30.07,NNW,332,1.0,6.0,66,0.00,,,0.00,Wunderground v.1.15,2013-06-24 14:58:00,
2013-06-24 11:00:00,85.3,72.6,30.07,West,264,1.0,2.0,66,0.00,,,0.00,Wunderground v.1.15,2013-06-24 15:00:00,
2013-06-24 11:01:00,85.3,72.6,30.07,WNW,284,2.0,4.0,66,0.00,,,0.00,Wunderground v.1.15,2013-06-24 15:01:00,
2013-06-24 11:03:00,85.3,72.6,30.07,NW,315,4.0,5.0,66,0.00,,,0.00,Wunderground v.1.15,2013-06-24 15:03:00,
2013-06-24 11:05:00,85.5,72.8,30.07,SW,222,1.0,5.0,66,0.00,,,0.00,Wunderground v.1.15,2013-06-24 15:05:00,
2013-06-24 11:07:00,85.5,72.8,30.07,SW,222,0.0,5.0,66,0.00,,,0.00,Wunderground v.1.15,2013-06-24 15:07:00,
2013-06-24 11:08:00,85.7,73.0,30.07,SW,222,0.0,5.0,66,0.00,,,0.00,Wunderground v.1.15,2013-06-24 15:08:00,
2013-06-24 11:09:00,85.7,73.0,30.07,SW,219,3.0,5.0,66,0.00,,,0.00,Wunderground v.1.15,2013-06-24 15:09:00,
2013-06-24 11:11:00,85.9,73.2,30.07,WSW,240,4.0,4.0,66,0.00,,,0.00,Wunderground v.1.15,2013-06-24 15:11:00,
2013-06-24 11:13:00,85.9,72.3,30.07,WSW,253,2.0,5.0,64,0.00,,,0.00,Wunderground v.1.15,2013-06-24 15:13:00,
2013-06-24 11:16:00,86.1,73.0,30.07,SW,229,5.0,5.0,65,0.00,,,0.00,Wunderground v.1.15,2013-06-24 15:16:00,
2013-06-24 11:17:00,86.1,73.0,30.07,SW,216,4.0,5.0,65,0.00,,,0.00,Wunderground v.1.15,2013-06-24 15:17:00,
2013-06-24 11:18:00,85.9,72.3,30.07,West,259,1.0,5.0,64,0.00,,,0.00,Wunderground v.1.15,2013-06-24 15:18:00,
2013-06-24 11:19:00,85.9,72.3,30.07,West,259,1.0,5.0,64,0.00,,,0.00,Wunderground v.1.15,2013-06-24 15:19:00,
2013-06-24 11:21:00,85.9,72.3,30.07,SSW,207,3.0,5.0,64,0.00,,,0.00,Wunderground v.1.15,2013-06-24 15:21:00,
2013-06-24 11:22:00,85.9,72.3,30.07,SSW,207,1.0,5.0,64,0.00,,,0.00,Wunderground v.1.15,2013-06-24 15:22:00,
2013-06-24 11:24:00,85.9,72.3,30.07,WNW,300,0.0,6.0,64,0.00,,,0.00,Wunderground v.1.15,2013-06-24 15:24:00,
2013-06-24 11:27:00,85.9,72.3,30.07,NW,325,2.0,6.0,64,0.00,,,0.00,Wunderground v.1.15,2013-06-24 15:27:00,
2013-06-24 11:29:00,86.1,72.5,30.07,WSW,237,3.0,6.0,64,0.00,,,0.00,Wunderground v.1.15,2013-06-24 15:29:00,
2013-06-24 11:34:00,86.3,73.1,30.07,WSW,237,3.0,4.0,65,0.00,,,0.00,Wunderground v.1.15,2013-06-24 15:34:00,
2013-06-24 11:36:00,86.5,72.4,30.07,NW,308,1.0,4.0,63,0.00,,,0.00,Wunderground v.1.15,2013-06-24 15:36:00,
2013-06-24 11:39:00,87.0,72.4,30.07,NW,306,2.0,6.0,62,0.00,,,0.00,Wunderground v.1.15,2013-06-24 15:39:00,
2013-06-24 11:42:00,87.2,72.6,30.07,SW,231,4.0,4.0,62,0.00,,,0.00,Wunderground v.1.15,2013-06-24 15:42:00,
2013-06-24 11:44:00,87.2,72.6,30.07,SW,217,2.0,6.0,62,0.00,,,0.00,Wunderground v.1.15,2013-06-24 15:44:00,
2013-06-24 11:45:00,87.2,72.1,30.07,NW,304,1.0,6.0,61,0.00,,,0.00,Wunderground v.1.15,2013-06-24 15:45:00,
2013-06-24 11:47:00,87.2,71.6,30.06,WSW,238,0.0,7.0,60,0.00,,,0.00,Wunderground v.1.15,2013-06-24 15:47:00,
2013-06-24 11:50:00,87.4,72.3,30.06,North,5,0.0,2.0,61,0.00,,,0.00,Wunderground v.1.15,2013-06-24 15:50:00,
2013-06-24 11:51:00,87.4,71.8,30.06,North,5,0.0,2.0,60,0.00,,,0.00,Wunderground v.1.15,2013-06-24 15:51:00,
2013-06-24 11:52:00,87.4,71.8,30.06,North,5,1.0,2.0,60,0.00,,,0.00,Wunderground v.1.15,2013-06-24 15:52:00,
2013-06-24 11:54:00,87.8,72.7,30.06,WNW,284,2.0,2.0,61,0.00,,,0.00,Wunderground v.1.15,2013-06-24 15:54:00,
2013-06-24 11:56:00,88.0,72.9,30.06,NW,323,2.0,6.0,61,0.00,,,0.00,Wunderground v.1.15,2013-06-24 15:56:00,
2013-06-24 11:57:00,88.0,72.4,30.06,West,277,0.0,6.0,60,0.00,,,0.00,Wunderground v.1.15,2013-06-24 15:57:00,
2013-06-24 11:59:00,88.4,71.7,30.06,West,277,1.0,6.0,58,0.00,,,0.00,Wunderground v.1.15,2013-06-24 15:59:00,
2013-06-24 12:02:00,88.6,71.9,30.06,WSW,243,0.0,4.0,58,0.00,,,0.00,Wunderground v.1.15,2013-06-24 16:02:00,
2013-06-24 12:03:00,88.6,72.4,30.06,WSW,243,0.0,4.0,59,0.00,,,0.00,Wunderground v.1.15,2013-06-24 16:03:00,
2013-06-24 12:04:00,88.8,72.1,30.06,WNW,294,1.0,4.0,58,0.00,,,0.00,Wunderground v.1.15,2013-06-24 16:04:00,
2013-06-24 12:07:00,88.8,72.1,30.06,WNW,284,0.0,5.0,58,0.00,,,0.00,Wunderground v.1.15,2013-06-24 16:07:00,
2013-06-24 12:09:00,89.3,72.6,30.06,WNW,284,0.0,5.0,58,0.00,,,0.00,Wunderground v.1.15,2013-06-24 16:09:00,
2013-06-24 12:10:00,89.3,72.6,30.06,SW,232,3.0,3.0,58,0.00,,,0.00,Wunderground v.1.15,2013-06-24 16:10:00,
2013-06-24 12:13:00,89.3,72.6,30.06,NW,321,1.0,7.0,58,0.00,,,0.00,Wunderground v.1.15,2013-06-24 16:13:00,
2013-06-24 12:15:00,89.3,72.1,30.06,NW,325,2.0,7.0,57,0.00,,,0.00,Wunderground v.1.15,2013-06-24 16:15:00,
2013-06-24 12:19:00,89.3,71.5,30.06,WSW,248,2.0,7.0,56,0.00,,,0.00,Wunderground v.1.15,2013-06-24 16:19:00,
2013-06-24 12:21:00,89.3,72.6,30.06,WNW,301,1.0,3.0,58,0.00,,,0.00,Wunderground v.1.15,2013-06-24 16:21:00,
2013-06-24 12:22:00,89.3,72.6,30.06,WNW,301,1.0,3.0,58,0.00,,,0.00,Wunderground v.1.15,2013-06-24 16:22:00,
2013-06-24 12:25:00,89.7,71.4,30.06,WNW,299,0.0,3.0,55,0.00,,,0.00,Wunderground v.1.15,2013-06-24 16:25:00,
2013-06-24 12:27:00,90.1,72.3,30.06,WNW,300,2.0,3.0,56,0.00,,,0.00,Wunderground v.1.15,2013-06-24 16:27:00,
2013-06-24 12:29:00,90.3,71.9,30.06,NW,321,3.0,10.0,55,0.00,,,0.00,Wunderground v.1.15,2013-06-24 16:29:00,
2013-06-24 12:30:00,90.3,71.9,30.06,North,355,1.0,2.0,55,0.00,,,0.00,Wunderground v.1.15,2013-06-24 16:30:00,
2013-06-24 12:32:00,90.3,71.9,30.06,NNW,336,3.0,3.0,55,0.00,,,0.00,Wunderground v.1.15,2013-06-24 16:32:00,
2013-06-24 12:35:00,90.5,71.6,30.06,NW,313,7.0,7.0,54,0.00,,,0.00,Wunderground v.1.15,2013-06-24 16:35:00,
2013-06-24 12:36:00,90.5,71.6,30.06,NW,307,7.0,7.0,54,0.00,,,0.00,Wunderground v.1.15,2013-06-24 16:36:00,
2013-06-24 12:37:00,90.3,71.9,30.06,WNW,294,2.0,9.0,55,0.00,,,0.00,Wunderground v.1.15,2013-06-24 16:37:00,
2013-06-24 12:38:00,90.3,71.9,30.06,WNW,302,1.0,9.0,55,0.00,,,0.00,Wunderground v.1.15,2013-06-24 16:38:00,
2013-06-24 12:41:00,90.3,71.9,30.06,WNW,295,0.0,2.0,55,0.00,,,0.00,Wunderground v.1.15,2013-06-24 16:41:00,
2013-06-24 12:43:00,90.1,71.2,30.06,WSW,254,0.0,5.0,54,0.00,,,0.00,Wunderground v.1.15,2013-06-24 16:43:00,
2013-06-24 12:44:00,90.1,71.2,30.06,NW,304,3.0,10.0,54,0.00,,,0.00,Wunderground v.1.15,2013-06-24 16:44:00,
2013-06-24 12:46:00,90.1,71.2,30.06,NW,315,2.0,12.0,54,0.00,,,0.00,Wunderground v.1.15,2013-06-24 16:46:00,
2013-06-24 12:48:00,90.1,71.2,30.06,WSW,248,0.0,12.0,54,0.00,,,0.00,Wunderground v.1.15,2013-06-24 16:48:00,
2013-06-24 12:50:00,90.3,71.4,30.06,WSW,238,1.0,2.0,54,0.00,,,0.00,Wunderground v.1.15,2013-06-24 16:50:00,
2013-06-24 12:51:00,90.3,70.8,30.06,NW,322,2.0,4.0,53,0.00,,,0.00,Wunderground v.1.15,2013-06-24 16:51:00,
2013-06-24 12:52:00,90.3,71.4,30.06,NW,322,1.0,4.0,54,0.00,,,0.00,Wunderground v.1.15,2013-06-24 16:52:00,
2013-06-24 12:53:00,90.3,70.3,30.06,NW,310,3.0,4.0,52,0.00,,,0.00,Wunderground v.1.15,2013-06-24 16:53:00,
2013-06-24 12:56:00,90.3,70.3,30.06,NW,325,5.0,7.0,52,0.00,,,0.00,Wunderground v.1.15,2013-06-24 16:56:00,
2013-06-24 12:59:00,90.5,71.0,30.06,West,271,2.0,7.0,53,0.00,,,0.00,Wunderground v.1.15,2013-06-24 16:59:00,
2013-06-24 13:01:00,90.5,71.0,30.06,NW,310,0.0,4.0,53,0.00,,,0.00,Wunderground v.1.15,2013-06-24 17:01:00,
2013-06-24 13:04:00,90.5,69.3,30.06,NW,315,2.0,8.0,50,0.00,,,0.00,Wunderground v.1.15,2013-06-24 17:04:00,
2013-06-24 13:07:00,90.5,69.3,30.06,WNW,284,1.0,8.0,50,0.00,,,0.00,Wunderground v.1.15,2013-06-24 17:07:00,
2013-06-24 13:09:00,90.7,70.1,30.06,NW,313,0.0,8.0,51,0.00,,,0.00,Wunderground v.1.15,2013-06-24 17:09:00,
2013-06-24 13:12:00,91.0,69.2,30.06,WNW,294,4.0,6.0,49,0.00,,,0.00,Wunderground v.1.15,2013-06-24 17:12:00,
2013-06-24 13:14:00,91.0,70.9,30.05,NW,304,1.0,6.0,52,0.00,,,0.00,Wunderground v.1.15,2013-06-24 17:14:00,
2013-06-24 13:15:00,91.2,71.1,30.05,SW,224,2.0,6.0,52,0.00,,,0.00,Wunderground v.1.15,2013-06-24 17:15:00,
2013-06-24 13:17:00,91.2,70.5,30.05,NW,309,1.0,6.0,51,0.00,,,0.00,Wunderground v.1.15,2013-06-24 17:17:00,
2013-06-24 13:20:00,91.2,71.1,30.05,West,276,3.0,8.0,52,0.00,,,0.00,Wunderground v.1.15,2013-06-24 17:20:00,
2013-06-24 13:22:00,91.2,70.0,30.05,WNW,298,1.0,8.0,50,0.00,,,0.00,Wunderground v.1.15,2013-06-24 17:22:00,
2013-06-24 13:25:00,91.4,71.3,30.05,NW,323,5.0,8.0,52,0.00,,,0.00,Wunderground v.1.15,2013-06-24 17:25:00,
2013-06-24 13:26:00,91.4,70.7,30.05,NW,313,0.0,8.0,51,0.00,,,0.00,Wunderground v.1.15,2013-06-24 17:26:00,
2013-06-24 13:28:00,91.4,70.7,30.05,West,275,5.0,8.0,51,0.00,,,0.00,Wunderground v.1.15,2013-06-24 17:28:00,
2013-06-24 13:30:00,91.4,70.1,30.05,NW,310,5.0,5.0,50,0.00,,,0.00,Wunderground v.1.15,2013-06-24 17:30:00,
2013-06-24 13:31:00,91.4,69.0,30.05,WSW,250,0.0,6.0,48,0.00,,,0.00,Wunderground v.1.15,2013-06-24 17:31:00,
2013-06-24 13:33:00,91.4,69.6,30.05,WSW,252,0.0,6.0,49,0.00,,,0.00,Wunderground v.1.15,2013-06-24 17:33:00,
2013-06-24 13:35:00,91.6,69.1,30.05,West,261,1.0,6.0,48,0.00,,,0.00,Wunderground v.1.15,2013-06-24 17:35:00,
2013-06-24 13:37:00,91.8,69.3,30.05,SW,230,3.0,6.0,48,0.00,,,0.00,Wunderground v.1.15,2013-06-24 17:37:00,
2013-06-24 13:39:00,91.8,69.3,30.05,WSW,242,0.0,6.0,48,0.00,,,0.00,Wunderground v.1.15,2013-06-24 17:39:00,
2013-06-24 13:41:00,92.1,70.8,30.04,WSW,244,4.0,4.0,50,0.00,,,0.00,Wunderground v.1.15,2013-06-24 17:41:00,
2013-06-24 13:42:00,92.3,71.6,30.04,WNW,284,1.0,6.0,51,0.00,,,0.00,Wunderground v.1.15,2013-06-24 17:42:00,
2013-06-24 13:46:00,92.5,70.0,30.04,SW,235,3.0,6.0,48,0.00,,,0.00,Wunderground v.1.15,2013-06-24 17:46:00,
2013-06-24 13:47:00,92.7,68.9,30.04,WSW,248,1.0,6.0,46,0.00,,,0.00,Wunderground v.1.15,2013-06-24 17:47:00,
2013-06-24 13:48:00,92.7,68.9,30.04,WSW,248,1.0,6.0,46,0.00,,,0.00,Wunderground v.1.15,2013-06-24 17:48:00,
2013-06-24 13:51:00,92.7,67.6,30.04,WNW,296,1.0,5.0,44,0.00,,,0.00,Wunderground v.1.15,2013-06-24 17:51:00,
2013-06-24 13:53:00,92.7,68.9,30.04,SSW,199,1.0,5.0,46,0.00,,,0.00,Wunderground v.1.15,2013-06-24 17:53:00,
2013-06-24 13:58:00,92.9,68.4,30.03,WNW,296,2.0,5.0,45,0.00,,,0.00,Wunderground v.1.15,2013-06-24 17:58:00,
2013-06-24 13:59:00,92.9,68.4,30.03,SW,228,1.0,5.0,45,0.00,,,0.00,Wunderground v.1.15,2013-06-24 17:59:00,
2013-06-24 14:00:00,92.9,68.4,30.03,WSW,254,2.0,2.0,45,0.00,,,0.00,Wunderground v.1.15,2013-06-24 18:00:00,
2013-06-24 14:01:00,92.9,69.1,30.03,WNW,302,6.0,6.0,46,0.00,,,0.00,Wunderground v.1.15,2013-06-24 18:01:00,
2013-06-24 14:04:00,92.7,68.2,30.03,NW,323,1.0,6.0,45,0.00,,,0.00,Wunderground v.1.15,2013-06-24 18:04:00,
2013-06-24 14:05:00,92.5,69.3,30.03,WNW,296,4.0,6.0,47,0.00,,,0.00,Wunderground v.1.15,2013-06-24 18:05:00,
2013-06-24 14:06:00,92.5,69.3,30.02,NNW,332,2.0,6.0,47,0.00,,,0.00,Wunderground v.1.15,2013-06-24 18:06:00,
2013-06-24 14:10:00,92.5,69.3,30.02,West,265,3.0,3.0,47,0.00,,,0.00,Wunderground v.1.15,2013-06-24 18:10:00,
2013-06-24 14:12:00,92.7,68.9,30.02,WSW,257,2.0,3.0,46,0.00,,,0.00,Wunderground v.1.15,2013-06-24 18:12:00,
2013-06-24 14:15:00,92.7,68.2,30.02,NNW,336,0.0,6.0,45,0.00,,,0.00,Wunderground v.1.15,2013-06-24 18:15:00,
2013-06-24 14:17:00,92.9,69.1,30.01,SW,214,5.0,6.0,46,0.00,,,0.00,Wunderground v.1.15,2013-06-24 18:17:00,
2013-06-24 14:21:00,93.4,70.2,30.01,NW,307,1.0,3.0,47,0.00,,,0.00,Wunderground v.1.15,2013-06-24 18:21:00,
2013-06-24 14:22:00,93.4,70.2,30.01,NW,306,1.0,3.0,47,0.00,,,0.00,Wunderground v.1.15,2013-06-24 18:22:00,
2013-06-24 14:27:00,93.8,69.2,30.01,WSW,242,2.0,4.0,45,0.00,,,0.00,Wunderground v.1.15,2013-06-24 18:27:00,
2013-06-24 14:29:00,93.6,69.1,30.01,WSW,244,0.0,6.0,45,0.00,,,0.00,Wunderground v.1.15,2013-06-24 18:29:00,
2013-06-24 14:32:00,93.8,69.9,30.01,WSW,257,1.0,3.0,46,0.00,,,0.00,Wunderground v.1.15,2013-06-24 18:32:00,
2013-06-24 14:33:00,93.8,69.9,30.01,SSW,201,1.0,3.0,46,0.00,,,0.00,Wunderground v.1.15,2013-06-24 18:33:00,
2013-06-24 14:34:00,93.8,69.2,30.01,West,259,3.0,5.0,45,0.00,,,0.00,Wunderground v.1.15,2013-06-24 18:34:00,
2013-06-24 14:35:00,93.6,69.7,30.01,West,259,1.0,5.0,46,0.00,,,0.00,Wunderground v.1.15,2013-06-24 18:35:00,
2013-06-24 14:38:00,93.4,70.2,30.01,WNW,295,1.0,5.0,47,0.00,,,0.00,Wunderground v.1.15,2013-06-24 18:38:00,
2013-06-24 14:40:00,93.2,70.0,30.00,NW,312,3.0,3.0,47,0.00,,,0.00,Wunderground v.1.15,2013-06-24 18:40:00,
2013-06-24 14:41:00,93.2,70.0,30.00,NW,310,0.0,3.0,47,0.00,,,0.00,Wunderground v.1.15,2013-06-24 18:41:00,
2013-06-24 14:44:00,92.9,69.7,30.00,NW,310,2.0,3.0,47,0.00,,,0.00,Wunderground v.1.15,2013-06-24 18:44:00,
2013-06-24 14:48:00,93.2,70.6,30.00,WSW,244,0.0,9.0,48,0.00,,,0.00,Wunderground v.1.15,2013-06-24 18:48:00,
2013-06-24 14:49:00,93.4,70.8,30.00,NW,319,4.0,9.0,48,0.00,,,0.00,Wunderground v.1.15,2013-06-24 18:49:00,
2013-06-24 14:50:00,93.4,70.8,30.00,NW,319,0.0,3.0,48,0.00,,,0.00,Wunderground v.1.15,2013-06-24 18:50:00,
2013-06-24 14:54:00,93.4,69.5,30.00,NW,312,2.0,6.0,46,0.00,,,0.00,Wunderground v.1.15,2013-06-24 18:54:00,
2013-06-24 14:56:00,93.6,69.1,30.00,West,269,0.0,6.0,45,0.00,,,0.00,Wunderground v.1.15,2013-06-24 18:56:00,
2013-06-24 14:59:00,93.8,69.9,30.00,WNW,296,0.0,6.0,46,0.00,,,0.00,Wunderground v.1.15,2013-06-24 18:59:00,
2013-06-24 15:00:00,93.8,69.2,30.00,WNW,296,0.0,1.0,45,0.00,,,0.00,Wunderground v.1.15,2013-06-24 19:00:00,
2013-06-24 15:01:00,94.0,69.4,30.00,WNW,298,2.0,2.0,45,0.00,,,0.00,Wunderground v.1.15,2013-06-24 19:01:00,
2013-06-24 15:02:00,94.3,68.4,30.01,NW,309,1.0,3.0,43,0.00,,,0.00,Wunderground v.1.15,2013-06-24 19:02:00,
2013-06-24 15:05:00,94.3,70.3,30.01,WSW,246,1.0,3.0,46,0.00,,,0.00,Wunderground v.1.15,2013-06-24 19:05:00,
2013-06-24 15:06:00,94.3,70.3,30.00,WSW,246,1.0,3.0,46,0.00,,,0.00,Wunderground v.1.15,2013-06-24 19:06:00,
2013-06-24 15:07:00,94.3,70.3,30.01,WSW,252,4.0,6.0,46,0.00,,,0.00,Wunderground v.1.15,2013-06-24 19:07:00,
2013-06-24 15:09:00,94.3,69.0,30.01,ESE,116,0.0,6.0,44,0.00,,,0.00,Wunderground v.1.15,2013-06-24 19:09:00,
2013-06-24 15:12:00,94.0,68.8,30.00,WNW,290,5.0,5.0,44,0.00,,,0.00,Wunderground v.1.15,2013-06-24 19:12:00,
2013-06-24 15:13:00,93.8,68.6,30.00,NW,316,3.0,9.0,44,0.00,,,0.00,Wunderground v.1.15,2013-06-24 19:13:00,
2013-06-24 15:15:00,93.6,69.7,30.00,NW,312,3.0,9.0,46,0.00,,,0.00,Wunderground v.1.15,2013-06-24 19:15:00,
2013-06-24 15:18:00,93.2,69.3,30.00,WNW,290,3.0,9.0,46,0.00,,,0.00,Wunderground v.1.15,2013-06-24 19:18:00,
2013-06-24 15:19:00,92.9,69.1,30.00,WNW,288,5.0,9.0,46,0.00,,,0.00,Wunderground v.1.15,2013-06-24 19:19:00,
2013-06-24 15:22:00,92.5,70.0,29.99,WSW,252,1.0,4.0,48,0.00,,,0.00,Wunderground v.1.15,2013-06-24 19:22:00,
2013-06-24 15:24:00,92.3,69.8,30.00,NW,306,3.0,7.0,48,0.00,,,0.00,Wunderground v.1.15,2013-06-24 19:24:00,
2013-06-24 15:25:00,92.1,70.2,30.00,NW,311,5.0,10.0,49,0.00,,,0.00,Wunderground v.1.15,2013-06-24 19:25:00,
2013-06-24 15:26:00,92.1,70.2,30.00,NW,319,2.0,10.0,49,0.00,,,0.00,Wunderground v.1.15,2013-06-24 19:26:00,
2013-06-24 15:27:00,91.8,70.5,30.00,NW,319,2.0,10.0,50,0.00,,,0.00,Wunderground v.1.15,2013-06-24 19:27:00,
2013-06-24 15:30:00,91.4,69.6,30.00,NW,306,3.0,4.0,49,0.00,,,0.00,Wunderground v.1.15,2013-06-24 19:30:00,
2013-06-24 15:32:00,91.4,69.6,30.00,NW,313,4.0,4.0,49,0.00,,,0.00,Wunderground v.1.15,2013-06-24 19:32:00,
2013-06-24 15:34:00,91.6,70.3,30.00,NW,325,7.0,7.0,50,0.00,,,0.00,Wunderground v.1.15,2013-06-24 19:34:00,
2013-06-24 15:36:00,91.6,69.1,30.00,WNW,301,7.0,7.0,48,0.00,,,0.00,Wunderground v.1.15,2013-06-24 19:36:00,
2013-06-24 15:38:00,91.6,68.5,30.00,NW,311,5.0,7.0,47,0.00,,,0.00,Wunderground v.1.15,2013-06-24 19:38:00,
2013-06-24 15:39:00,91.6,67.9,30.00,NW,322,6.0,7.0,46,0.00,,,0.00,Wunderground v.1.15,2013-06-24 19:39:00,
2013-06-24 15:40:00,91.6,69.1,30.00,NW,314,8.0,8.0,48,0.00,,,0.00,Wunderground v.1.15,2013-06-24 19:40:00,
2013-06-24 15:41:00,91.6,68.5,30.00,WNW,296,6.0,8.0,47,0.00,,,0.00,Wunderground v.1.15,2013-06-24 19:41:00,
2013-06-24 15:45:00,91.4,67.1,30.00,WNW,298,0.0,10.0,45,0.00,,,0.00,Wunderground v.1.15,2013-06-24 19:45:00,
2013-06-24 15:46:00,91.6,67.9,30.00,WNW,289,3.0,10.0,46,0.00,,,0.00,Wunderground v.1.15,2013-06-24 19:46:00,
2013-06-24 15:50:00,91.6,67.3,30.00,West,263,3.0,3.0,45,0.00,,,0.00,Wunderground v.1.15,2013-06-24 19:50:00,
2013-06-24 15:51:00,91.6,67.9,30.00,North,360,2.0,4.0,46,0.00,,,0.00,Wunderground v.1.15,2013-06-24 19:51:00,
2013-06-24 15:52:00,91.6,67.9,30.00,SW,225,5.0,5.0,46,0.00,,,0.00,Wunderground v.1.15,2013-06-24 19:52:00,
2013-06-24 15:56:00,91.4,65.8,30.01,West,271,10.0,12.0,43,0.00,,,0.00,Wunderground v.1.15,2013-06-24 19:56:00,
2013-06-24 15:57:00,91.4,66.4,30.01,SW,215,6.0,12.0,44,0.00,,,0.00,Wunderground v.1.15,2013-06-24 19:57:00,
2013-06-24 15:58:00,91.0,66.1,30.01,NW,310,5.0,12.0,44,0.00,,,0.00,Wunderground v.1.15,2013-06-24 19:58:00,
2013-06-24 16:02:00,89.5,62.7,30.01,NW,305,4.0,11.0,41,0.00,,,0.00,Wunderground v.1.15,2013-06-24 20:02:00,
2013-06-24 16:03:00,89.3,62.5,30.01,NW,309,4.0,11.0,41,0.00,,,0.00,Wunderground v.1.15,2013-06-24 20:03:00,
2013-06-24 16:07:00,87.8,61.9,30.01,NW,311,9.0,11.0,42,0.00,,,0.00,Wunderground v.1.15,2013-06-24 20:07:00,
2013-06-24 16:08:00,87.6,61.7,30.01,NW,318,5.0,11.0,42,0.00,,,0.00,Wunderground v.1.15,2013-06-24 20:08:00,
2013-06-24 16:12:00,86.7,60.9,30.01,WNW,294,5.0,5.0,42,0.00,,,0.00,Wunderground v.1.15,2013-06-24 20:12:00,
2013-06-24 16:13:00,86.5,60.7,30.01,NW,305,1.0,9.0,42,0.00,,,0.00,Wunderground v.1.15,2013-06-24 20:13:00,
2013-06-24 16:14:00,86.5,61.3,30.01,WNW,289,2.0,9.0,43,0.00,,,0.00,Wunderground v.1.15,2013-06-24 20:14:00,
2013-06-24 16:18:00,85.7,61.3,30.01,NW,315,5.0,12.0,44,0.00,,,0.00,Wunderground v.1.15,2013-06-24 20:18:00,
2013-06-24 16:20:00,85.1,61.4,30.01,WNW,302,4.0,4.0,45,0.00,,,0.00,Wunderground v.1.15,2013-06-24 20:20:00,
2013-06-24 16:22:00,84.7,61.6,30.01,NW,307,0.0,9.0,46,0.00,,,0.00,Wunderground v.1.15,2013-06-24 20:22:00,
2013-06-24 16:23:00,84.5,62.1,30.01,NW,322,2.0,9.0,47,0.00,,,0.00,Wunderground v.1.15,2013-06-24 20:23:00,
2013-06-24 16:24:00,84.1,61.7,30.01,WNW,292,4.0,9.0,47,0.00,,,0.00,Wunderground v.1.15,2013-06-24 20:24:00,
2013-06-24 16:26:00,83.8,62.0,30.01,NW,317,8.0,10.0,48,0.00,,,0.00,Wunderground v.1.15,2013-06-24 20:26:00,
2013-06-24 16:29:00,83.0,61.3,30.00,WSW,248,3.0,10.0,48,0.00,,,0.00,Wunderground v.1.15,2013-06-24 20:29:00,
2013-06-24 16:30:00,82.8,61.1,30.00,WNW,299,3.0,10.0,48,0.00,,,0.00,Wunderground v.1.15,2013-06-24 20:30:00,
2013-06-24 16:32:00,82.2,61.1,30.00,WNW,302,5.0,10.0,49,0.00,,,0.00,Wunderground v.1.15,2013-06-24 20:32:00,
2013-06-24 16:34:00,81.6,61.2,30.00,WNW,302,2.0,14.0,50,0.00,,,0.00,Wunderground v.1.15,2013-06-24 20:34:00,
2013-06-24 16:35:00,81.4,61.0,30.00,NW,316,4.0,14.0,50,0.00,,,0.00,Wunderground v.1.15,2013-06-24 20:35:00,
2013-06-24 16:37:00,81.1,61.3,30.00,WSW,250,0.0,14.0,51,0.00,,,0.00,Wunderground v.1.15,2013-06-24 20:37:00,
2013-06-24 16:40:00,80.5,61.3,30.00,NNW,331,5.0,5.0,52,0.00,,,0.00,Wunderground v.1.15,2013-06-24 20:40:00,
2013-06-24 16:41:00,80.3,61.6,30.00,NW,308,4.0,5.0,53,0.00,,,0.00,Wunderground v.1.15,2013-06-24 20:41:00,
2013-06-24 16:42:00,80.3,61.6,30.00,NW,311,5.0,5.0,53,0.00,,,0.00,Wunderground v.1.15,2013-06-24 20:42:00,
2013-06-24 16:43:00,79.9,61.2,30.00,WNW,292,1.0,7.0,53,0.00,,,0.00,Wunderground v.1.15,2013-06-24 20:43:00,
2013-06-24 16:46:00,79.6,61.5,29.99,WNW,296,2.0,7.0,54,0.00,,,0.00,Wunderground v.1.15,2013-06-24 20:46:00,
2013-06-24 16:47:00,79.6,61.5,29.98,WNW,296,2.0,7.0,54,0.00,,,0.00,Wunderground v.1.15,2013-06-24 20:47:00,
2013-06-24 16:48:00,79.4,61.3,29.98,NW,315,3.0,7.0,54,0.00,,,0.00,Wunderground v.1.15,2013-06-24 20:48:00,
2013-06-24 16:52:00,79.2,61.1,29.99,SW,229,3.0,3.0,54,0.00,,,0.00,Wunderground v.1.15,2013-06-24 20:52:00,
2013-06-24 16:54:00,79.0,60.4,29.99,SW,234,0.0,5.0,53,0.00,,,0.00,Wunderground v.1.15,2013-06-24 20:54:00,
2013-06-24 16:57:00,79.0,61.5,30.00,SE,136,0.0,5.0,55,0.00,,,0.00,Wunderground v.1.15,2013-06-24 20:57:00,
2013-06-24 16:58:00,79.0,61.5,30.00,SE,136,0.0,5.0,55,0.00,,,0.00,Wunderground v.1.15,2013-06-24 20:58:00,
2013-06-24 16:59:00,78.8,60.7,30.01,SE,136,1.0,5.0,54,0.00,,,0.00,Wunderground v.1.15,2013-06-24 20:59:00,
2013-06-24 17:04:00,78.8,60.7,30.01,South,184,0.0,2.0,54,0.00,,,0.00,Wunderground v.1.15,2013-06-24 21:04:00,
2013-06-24 17:05:00,78.8,60.7,30.01,SW,232,3.0,6.0,54,0.00,,,0.00,Wunderground v.1.15,2013-06-24 21:05:00,
2013-06-24 17:09:00,78.8,60.7,30.01,East,85,1.0,6.0,54,0.00,,,0.00,Wunderground v.1.15,2013-06-24 21:09:00,
2013-06-24 17:10:00,78.8,60.7,30.01,SSE,153,1.0,1.0,54,0.00,,,0.00,Wunderground v.1.15,2013-06-24 21:10:00,
2013-06-24 17:11:00,78.8,60.7,30.01,SSE,153,0.0,2.0,54,0.00,,,0.00,Wunderground v.1.15,2013-06-24 21:11:00,
2013-06-24 17:15:00,78.6,61.1,30.01,SSE,153,0.0,2.0,55,0.00,,,0.00,Wunderground v.1.15,2013-06-24 21:15:00,
2013-06-24 17:16:00,78.6,61.6,30.00,SSE,153,0.0,2.0,56,0.00,,,0.00,Wunderground v.1.15,2013-06-24 21:16:00,
2013-06-24 17:17:00,78.5,61.5,30.00,SSE,153,0.0,2.0,56,0.00,,,0.00,Wunderground v.1.15,2013-06-24 21:17:00,
2013-06-24 17:18:00,78.5,61.5,30.00,SSE,153,1.0,2.0,56,0.00,,,0.00,Wunderground v.1.15,2013-06-24 21:18:00,
2013-06-24 17:20:00,78.3,63.3,30.00,SSE,153,0.0,0.0,60,0.00,,,0.00,Wunderground v.1.15,2013-06-24 21:20:00,
2013-06-24 17:22:00,78.3,63.7,29.99,SSE,153,0.0,0.0,61,0.00,,,0.00,Wunderground v.1.15,2013-06-24 21:22:00,
2013-06-24 17:24:00,77.9,62.4,29.99,SSE,153,0.0,0.0,59,0.00,,,0.00,Wunderground v.1.15,2013-06-24 21:24:00,
2013-06-24 17:26:00,77.9,63.8,30.00,SSE,153,0.0,0.0,62,0.00,,,0.00,Wunderground v.1.15,2013-06-24 21:26:00,
2013-06-24 17:29:00,78.3,64.7,30.01,SSW,207,0.0,1.0,63,0.00,,,0.00,Wunderground v.1.15,2013-06-24 21:29:00,
2013-06-24 17:30:00,78.5,63.9,30.00,SSW,205,1.0,1.0,61,0.00,,,0.00,Wunderground v.1.15,2013-06-24 21:30:00,
2013-06-24 17:31:00,78.6,64.0,30.00,ESE,114,5.0,5.0,61,0.00,,,0.00,Wunderground v.1.15,2013-06-24 21:31:00,
2013-06-24 17:32:00,78.6,64.0,30.00,ESE,114,4.0,5.0,61,0.00,,,0.00,Wunderground v.1.15,2013-06-24 21:32:00,
2013-06-24 17:35:00,79.2,63.6,30.00,SE,126,0.0,5.0,59,0.00,,,0.00,Wunderground v.1.15,2013-06-24 21:35:00,
2013-06-24 17:36:00,79.2,63.6,29.99,SE,126,0.0,5.0,59,0.00,,,0.00,Wunderground v.1.15,2013-06-24 21:36:00,
2013-06-24 17:37:00,79.4,63.3,29.99,SE,126,0.0,5.0,58,0.00,,,0.00,Wunderground v.1.15,2013-06-24 21:37:00,
2013-06-24 17:40:00,79.9,62.8,29.99,SW,214,0.0,1.0,56,0.00,,,0.00,Wunderground v.1.15,2013-06-24 21:40:00,
2013-06-24 17:42:00,80.1,63.0,29.99,SSE,159,5.0,5.0,56,0.00,,,0.00,Wunderground v.1.15,2013-06-24 21:42:00,
2013-06-24 17:43:00,80.3,63.2,29.99,SSE,157,3.0,5.0,56,0.00,,,0.00,Wunderground v.1.15,2013-06-24 21:43:00,
2013-06-24 17:46:00,80.5,63.4,29.99,SSW,193,0.0,5.0,56,0.00,,,0.00,Wunderground v.1.15,2013-06-24 21:46:00,
2013-06-24 17:47:00,80.7,63.0,29.98,SSW,193,0.0,5.0,55,0.00,,,0.00,Wunderground v.1.15,2013-06-24 21:47:00,
2013-06-24 17:49:00,80.9,63.7,29.98,SSW,193,0.0,5.0,56,0.00,,,0.00,Wunderground v.1.15,2013-06-24 21:49:00,
2013-06-24 17:54:00,81.2,64.0,29.99,SSW,193,0.0,1.0,56,0.00,,,0.00,Wunderground v.1.15,2013-06-24 21:54:00,
2013-06-24 17:56:00,81.4,63.7,29.99,WSW,257,0.0,2.0,55,0.00,,,0.00,Wunderground v.1.15,2013-06-24 21:56:00,
2013-06-24 17:59:00,81.8,64.1,29.99,SSW,198,1.0,3.0,55,0.00,,,0.00,Wunderground v.1.15,2013-06-24 21:59:00,
2013-06-24 18:00:00,81.8,63.5,29.99,SSE,147,1.0,1.0,54,0.00,,,0.00,Wunderground v.1.15,2013-06-24 22:00:00,
2013-06-24 18:02:00,81.8,63.0,29.99,SSE,147,1.0,1.0,53,0.00,,,0.00,Wunderground v.1.15,2013-06-24 22:02:00,
2013-06-24 18:06:00,82.0,63.2,29.99,WNW,293,0.0,1.0,53,0.00,,,0.00,Wunderground v.1.15,2013-06-24 22:06:00,
2013-06-24 18:08:00,82.0,63.2,29.99,WNW,293,0.0,1.0,53,0.00,,,0.00,Wunderground v.1.15,2013-06-24 22:08:00,
2013-06-24 18:12:00,82.2,62.8,29.99,WNW,293,0.0,0.0,52,0.00,,,0.00,Wunderground v.1.15,2013-06-24 22:12:00,
2013-06-24 18:13:00,82.2,62.8,29.99,WNW,293,0.0,0.0,52,0.00,,,0.00,Wunderground v.1.15,2013-06-24 22:13:00,
2013-06-24 18:14:00,82.2,62.3,29.99,WNW,293,0.0,0.0,51,0.00,,,0.00,Wunderground v.1.15,2013-06-24 22:14:00,
2013-06-24 18:17:00,82.4,62.5,30.00,WNW,293,0.0,0.0,51,0.00,,,0.00,Wunderground v.1.15,2013-06-24 22:17:00,
2013-06-24 18:19:00,82.4,61.9,30.00,WNW,293,0.0,1.0,50,0.00,,,0.00,Wunderground v.1.15,2013-06-24 22:19:00,
2013-06-24 18:22:00,82.6,62.6,30.00,WNW,293,0.0,0.0,51,0.00,,,0.00,Wunderground v.1.15,2013-06-24 22:22:00,
2013-06-24 18:24:00,82.6,62.1,30.00,WNW,293,0.0,0.0,50,0.00,,,0.00,Wunderground v.1.15,2013-06-24 22:24:00,
2013-06-24 18:26:00,82.6,62.1,30.00,WNW,293,0.0,0.0,50,0.00,,,0.00,Wunderground v.1.15,2013-06-24 22:26:00,
2013-06-24 18:27:00,82.8,62.3,30.00,WNW,293,0.0,1.0,50,0.00,,,0.00,Wunderground v.1.15,2013-06-24 22:27:00,
2013-06-24 18:29:00,82.8,61.7,30.00,WNW,293,0.0,2.0,49,0.00,,,0.00,Wunderground v.1.15,2013-06-24 22:29:00,
2013-06-24 18:30:00,82.8,62.8,30.00,WNW,293,0.0,0.0,51,0.00,,,0.00,Wunderground v.1.15,2013-06-24 22:30:00,
2013-06-24 18:31:00,83.0,63.0,30.00,WNW,293,0.0,0.0,51,0.00,,,0.00,Wunderground v.1.15,2013-06-24 22:31:00,
2013-06-24 18:33:00,83.0,61.9,30.00,WNW,293,2.0,2.0,49,0.00,,,0.00,Wunderground v.1.15,2013-06-24 22:33:00,
2013-06-24 18:34:00,83.0,61.9,30.00,WNW,293,0.0,2.0,49,0.00,,,0.00,Wunderground v.1.15,2013-06-24 22:34:00,
2013-06-24 18:35:00,83.0,61.9,30.00,WNW,293,0.0,2.0,49,0.00,,,0.00,Wunderground v.1.15,2013-06-24 22:35:00,
2013-06-24 18:36:00,83.0,61.9,30.00,WNW,293,0.0,2.0,49,0.00,,,0.00,Wunderground v.1.15,2013-06-24 22:36:00,
2013-06-24 18:38:00,83.2,62.1,30.00,WNW,293,0.0,2.0,49,0.00,,,0.00,Wunderground v.1.15,2013-06-24 22:38:00,
2013-06-24 18:40:00,83.4,62.2,30.00,WNW,293,1.0,1.0,49,0.00,,,0.00,Wunderground v.1.15,2013-06-24 22:40:00,
2013-06-24 18:41:00,83.4,61.7,30.00,WNW,293,0.0,1.0,48,0.00,,,0.00,Wunderground v.1.15,2013-06-24 22:41:00,
2013-06-24 18:44:00,83.4,62.2,29.99,WNW,293,0.0,1.0,49,0.00,,,0.00,Wunderground v.1.15,2013-06-24 22:44:00,
2013-06-24 18:45:00,83.4,62.2,29.99,WNW,293,0.0,1.0,49,0.00,,,0.00,Wunderground v.1.15,2013-06-24 22:45:00,
2013-06-24 18:46:00,83.4,62.2,29.99,WNW,293,0.0,1.0,49,0.00,,,0.00,Wunderground v.1.15,2013-06-24 22:46:00,
2013-06-24 18:49:00,83.4,62.2,29.99,SSW,208,1.0,1.0,49,0.00,,,0.00,Wunderground v.1.15,2013-06-24 22:49:00,
2013-06-24 18:52:00,83.4,62.2,29.99,SW,218,0.0,0.0,49,0.00,,,0.00,Wunderground v.1.15,2013-06-24 22:52:00,
2013-06-24 18:53:00,83.6,63.0,29.99,SW,218,0.0,0.0,50,0.00,,,0.00,Wunderground v.1.15,2013-06-24 22:53:00,
2013-06-24 18:55:00,83.4,62.8,29.99,SW,218,0.0,1.0,50,0.00,,,0.00,Wunderground v.1.15,2013-06-24 22:55:00,
2013-06-24 18:58:00,83.4,62.2,29.99,WSW,252,2.0,2.0,49,0.00,,,0.00,Wunderground v.1.15,2013-06-24 22:58:00,
2013-06-24 18:59:00,83.4,61.1,29.99,WSW,252,0.0,2.0,47,0.00,,,0.00,Wunderground v.1.15,2013-06-24 22:59:00,
2013-06-24 19:00:00,83.4,61.7,29.99,WSW,252,0.0,0.0,48,0.00,,,0.00,Wunderground v.1.15,2013-06-24 23:00:00,
2013-06-24 19:05:00,83.6,62.4,29.99,WSW,252,1.0,1.0,49,0.00,,,0.00,Wunderground v.1.15,2013-06-24 23:05:00,
2013-06-24 19:06:00,83.6,63.0,29.99,WSW,252,0.0,1.0,50,0.00,,,0.00,Wunderground v.1.15,2013-06-24 23:06:00,
2013-06-24 19:10:00,83.8,62.0,29.99,SW,236,4.0,4.0,48,0.00,,,0.00,Wunderground v.1.15,2013-06-24 23:10:00,
2013-06-24 19:11:00,83.8,62.0,29.99,SW,236,0.0,4.0,48,0.00,,,0.00,Wunderground v.1.15,2013-06-24 23:11:00,
2013-06-24 19:12:00,83.8,62.6,29.99,SW,236,0.0,4.0,49,0.00,,,0.00,Wunderground v.1.15,2013-06-24 23:12:00,
2013-06-24 19:15:00,83.6,63.0,29.99,SW,236,0.0,4.0,50,0.00,,,0.00,Wunderground v.1.15,2013-06-24 23:15:00,
2013-06-24 19:16:00,83.6,62.4,29.99,SW,236,0.0,4.0,49,0.00,,,0.00,Wunderground v.1.15,2013-06-24 23:16:00,
2013-06-24 19:17:00,83.6,62.4,29.99,SW,236,0.0,4.0,49,0.00,,,0.00,Wunderground v.1.15,2013-06-24 23:17:00,
2013-06-24 19:21:00,83.4,62.2,29.99,SW,236,1.0,1.0,49,0.00,,,0.00,Wunderground v.1.15,2013-06-24 23:21:00,
2013-06-24 19:22:00,83.2,62.1,29.99,SW,236,0.0,2.0,49,0.00,,,0.00,Wunderground v.1.15,2013-06-24 23:22:00,
2013-06-24 19:23:00,83.0,61.9,29.99,SW,219,0.0,2.0,49,0.00,,,0.00,Wunderground v.1.15,2013-06-24 23:23:00,
2013-06-24 19:26:00,82.8,62.3,29.99,West,273,1.0,2.0,50,0.00,,,0.00,Wunderground v.1.15,2013-06-24 23:26:00,
2013-06-24 19:28:00,82.6,62.1,29.99,West,273,0.0,2.0,50,0.00,,,0.00,Wunderground v.1.15,2013-06-24 23:28:00,
2013-06-24 19:31:00,82.4,61.9,29.99,West,274,0.0,2.0,50,0.00,,,0.00,Wunderground v.1.15,2013-06-24 23:31:00,
2013-06-24 19:32:00,82.2,62.3,29.99,West,274,0.0,2.0,51,0.00,,,0.00,Wunderground v.1.15,2013-06-24 23:32:00,
2013-06-24 19:33:00,82.2,62.3,30.00,West,274,2.0,3.0,51,0.00,,,0.00,Wunderground v.1.15,2013-06-24 23:33:00,
2013-06-24 19:34:00,82.0,62.1,30.00,WNW,293,5.0,5.0,51,0.00,,,0.00,Wunderground v.1.15,2013-06-24 23:34:00,
2013-06-24 19:36:00,81.8,61.9,30.01,NW,306,9.0,10.0,51,0.00,,,0.00,Wunderground v.1.15,2013-06-24 23:36:00,
2013-06-24 19:39:00,81.6,62.8,30.00,NNW,337,4.0,12.0,53,0.00,,,0.00,Wunderground v.1.15,2013-06-24 23:39:00,
2013-06-24 19:40:00,81.4,63.2,29.99,North,5,0.0,3.0,54,0.00,,,0.00,Wunderground v.1.15,2013-06-24 23:40:00,
2013-06-24 19:42:00,81.2,64.0,29.99,North,5,1.0,3.0,56,0.00,,,0.00,Wunderground v.1.15,2013-06-24 23:42:00,
2013-06-24 19:44:00,81.1,64.4,30.00,NW,318,7.0,7.0,57,0.00,,,0.00,Wunderground v.1.15,2013-06-24 23:44:00,
2013-06-24 19:45:00,80.9,64.7,30.00,NW,313,0.0,7.0,58,0.00,,,0.00,Wunderground v.1.15,2013-06-24 23:45:00,
2013-06-24 19:48:00,80.7,65.5,30.00,NW,311,3.0,7.0,60,0.00,,,0.00,Wunderground v.1.15,2013-06-24 23:48:00,
2013-06-24 19:49:00,80.7,66.0,30.00,NW,311,2.0,7.0,61,0.00,,,0.00,Wunderground v.1.15,2013-06-24 23:49:00,
2013-06-24 19:50:00,80.5,65.8,30.00,NW,315,2.0,3.0,61,0.00,,,0.00,Wunderground v.1.15,2013-06-24 23:50:00,
2013-06-24 19:51:00,80.5,66.3,30.00,NW,324,1.0,3.0,62,0.00,,,0.00,Wunderground v.1.15,2013-06-24 23:51:00,
2013-06-24 19:55:00,80.3,66.1,30.00,NW,316,0.0,3.0,62,0.00,,,0.00,Wunderground v.1.15,2013-06-24 23:55:00,
2013-06-24 19:56:00,80.3,66.1,30.00,NW,316,0.0,3.0,62,0.00,,,0.00,Wunderground v.1.15,2013-06-24 23:56:00,
2013-06-24 20:00:00,79.9,66.2,30.00,SW,224,1.0,1.0,63,0.00,,,0.00,Wunderground v.1.15,2013-06-25 00:00:00,
2013-06-24 20:01:00,79.9,66.2,30.00,SW,224,0.0,1.0,63,0.00,,,0.00,Wunderground v.1.15,2013-06-25 00:01:00,
2013-06-24 20:02:00,79.9,66.6,30.00,SW,224,0.0,1.0,64,0.00,,,0.00,Wunderground v.1.15,2013-06-25 00:02:00,
2013-06-24 20:06:00,79.6,66.3,30.00,SW,224,1.0,2.0,64,0.00,,,0.00,Wunderground v.1.15,2013-06-25 00:06:00,
2013-06-24 20:07:00,79.6,66.3,30.00,SW,224,0.0,2.0,64,0.00,,,0.00,Wunderground v.1.15,2013-06-25 00:07:00,
2013-06-24 20:11:00,79.2,66.4,29.99,SW,227,0.0,3.0,65,0.00,,,0.00,Wunderground v.1.15,2013-06-25 00:11:00,
2013-06-24 20:12:00,79.2,66.0,30.00,SW,236,2.0,3.0,64,0.00,,,0.00,Wunderground v.1.15,2013-06-25 00:12:00,
2013-06-24 20:13:00,79.2,66.0,30.00,WSW,238,0.0,3.0,64,0.00,,,0.00,Wunderground v.1.15,2013-06-25 00:13:00,
2013-06-24 20:17:00,79.2,66.0,30.00,WSW,238,0.0,3.0,64,0.00,,,0.00,Wunderground v.1.15,2013-06-25 00:17:00,
2013-06-24 20:20:00,79.0,65.8,29.99,WSW,240,0.0,0.0,64,0.00,,,0.00,Wunderground v.1.15,2013-06-25 00:20:00,
2013-06-24 20:22:00,79.0,65.8,30.00,WSW,240,0.0,0.0,64,0.00,,,0.00,Wunderground v.1.15,2013-06-25 00:22:00,
2013-06-24 20:23:00,79.0,65.8,29.99,WSW,240,0.0,0.0,64,0.00,,,0.00,Wunderground v.1.15,2013-06-25 00:23:00,
2013-06-24 20:26:00,79.0,65.8,30.00,WSW,240,0.0,0.0,64,0.00,,,0.00,Wunderground v.1.15,2013-06-25 00:26:00,
2013-06-24 20:27:00,79.0,65.8,30.00,WSW,240,0.0,0.0,64,0.00,,,0.00,Wunderground v.1.15,2013-06-25 00:27:00,
2013-06-24 20:30:00,79.0,65.8,30.00,WSW,240,0.0,0.0,64,0.00,,,0.00,Wunderground v.1.15,2013-06-25 00:30:00,
2013-06-24 20:32:00,79.0,65.8,30.00,WSW,240,0.0,0.0,64,0.00,,,0.00,Wunderground v.1.15,2013-06-25 00:32:00,
2013-06-24 20:33:00,79.0,65.8,30.00,WSW,240,0.0,0.0,64,0.00,,,0.00,Wunderground v.1.15,2013-06-25 00:33:00,
2013-06-24 20:36:00,78.8,65.6,30.00,WSW,240,0.0,1.0,64,0.00,,,0.00,Wunderground v.1.15,2013-06-25 00:36:00,
2013-06-24 20:37:00,78.8,65.6,30.00,WSW,240,0.0,1.0,64,0.00,,,0.00,Wunderground v.1.15,2013-06-25 00:37:00,
2013-06-24 20:39:00,78.8,65.6,30.00,WSW,240,0.0,1.0,64,0.00,,,0.00,Wunderground v.1.15,2013-06-25 00:39:00,
2013-06-24 20:41:00,78.8,65.6,30.00,WSW,239,0.0,0.0,64,0.00,,,0.00,Wunderground v.1.15,2013-06-25 00:41:00,
2013-06-24 20:42:00,78.8,66.0,30.00,WSW,239,0.0,0.0,65,0.00,,,0.00,Wunderground v.1.15,2013-06-25 00:42:00,
2013-06-24 20:44:00,78.8,66.0,30.00,WSW,239,0.0,1.0,65,0.00,,,0.00,Wunderground v.1.15,2013-06-25 00:44:00,
2013-06-24 20:45:00,78.8,66.0,30.00,WSW,239,0.0,1.0,65,0.00,,,0.00,Wunderground v.1.15,2013-06-25 00:45:00,
2013-06-24 20:46:00,78.8,66.0,30.00,WSW,239,0.0,1.0,65,0.00,,,0.00,Wunderground v.1.15,2013-06-25 00:46:00,
2013-06-24 20:50:00,78.8,66.0,30.00,WSW,239,0.0,0.0,65,0.00,,,0.00,Wunderground v.1.15,2013-06-25 00:50:00,
2013-06-24 20:51:00,78.6,65.8,30.00,WSW,239,0.0,0.0,65,0.00,,,0.00,Wunderground v.1.15,2013-06-25 00:51:00,
2013-06-24 20:53:00,78.6,65.8,30.00,WSW,239,0.0,3.0,65,0.00,,,0.00,Wunderground v.1.15,2013-06-25 00:53:00,
2013-06-24 20:55:00,78.6,65.8,30.00,WSW,239,0.0,3.0,65,0.00,,,0.00,Wunderground v.1.15,2013-06-25 00:55:00,
2013-06-24 20:56:00,78.6,65.8,30.00,WSW,239,0.0,3.0,65,0.00,,,0.00,Wunderground v.1.15,2013-06-25 00:56:00,
2013-06-24 21:00:00,78.5,65.8,30.00,WSW,239,0.0,0.0,65,0.00,,,0.00,Wunderground v.1.15,2013-06-25 01:00:00,
2013-06-24 21:01:00,78.5,66.2,30.01,WSW,239,0.0,0.0,66,0.00,,,0.00,Wunderground v.1.15,2013-06-25 01:01:00,
2013-06-24 21:02:00,78.5,66.2,30.01,WSW,239,0.0,0.0,66,0.00,,,0.00,Wunderground v.1.15,2013-06-25 01:02:00,
2013-06-24 21:06:00,78.6,65.8,30.00,WSW,239,0.0,1.0,65,0.00,,,0.00,Wunderground v.1.15,2013-06-25 01:06:00,
2013-06-24 21:07:00,78.6,65.8,30.00,WSW,239,0.0,1.0,65,0.00,,,0.00,Wunderground v.1.15,2013-06-25 01:07:00,
2013-06-24 21:13:00,78.5,65.8,30.00,WSW,239,0.0,1.0,65,0.00,,,0.00,Wunderground v.1.15,2013-06-25 01:13:00,
2013-06-24 21:14:00,78.5,66.2,30.00,WSW,239,0.0,1.0,66,0.00,,,0.00,Wunderground v.1.15,2013-06-25 01:14:00,
2013-06-24 21:18:00,78.5,66.2,30.01,WSW,239,0.0,1.0,66,0.00,,,0.00,Wunderground v.1.15,2013-06-25 01:18:00,
2013-06-24 21:19:00,78.5,66.2,30.01,WSW,239,0.0,1.0,66,0.00,,,0.00,Wunderground v.1.15,2013-06-25 01:19:00,
2013-06-24 21:20:00,78.3,66.0,30.00,WSW,239,0.0,0.0,66,0.00,,,0.00,Wunderground v.1.15,2013-06-25 01:20:00,
2013-06-24 21:24:00,78.3,66.0,30.01,WSW,239,0.0,0.0,66,0.00,,,0.00,Wunderground v.1.15,2013-06-25 01:24:00,
2013-06-24 21:25:00,78.3,66.0,30.01,WSW,239,1.0,1.0,66,0.00,,,0.00,Wunderground v.1.15,2013-06-25 01:25:00,
2013-06-24 21:29:00,78.3,66.0,30.01,WSW,239,0.0,1.0,66,0.00,,,0.00,Wunderground v.1.15,2013-06-25 01:29:00,
2013-06-24 21:30:00,78.3,66.0,30.01,WSW,239,1.0,1.0,66,0.00,,,0.00,Wunderground v.1.15,2013-06-25 01:30:00,
2013-06-24 21:31:00,78.3,66.0,30.01,WSW,239,0.0,1.0,66,0.00,,,0.00,Wunderground v.1.15,2013-06-25 01:31:00,
2013-06-24 21:34:00,78.3,66.4,30.02,SW,236,3.0,4.0,67,0.00,,,0.00,Wunderground v.1.15,2013-06-25 01:34:00,
2013-06-24 21:35:00,78.3,66.4,30.02,SW,236,0.0,4.0,67,0.00,,,0.00,Wunderground v.1.15,2013-06-25 01:35:00,
2013-06-24 21:36:00,78.3,66.4,30.02,SW,236,1.0,4.0,67,0.00,,,0.00,Wunderground v.1.15,2013-06-25 01:36:00,
2013-06-24 21:37:00,78.3,66.4,30.02,SW,236,0.0,4.0,67,0.00,,,0.00,Wunderground v.1.15,2013-06-25 01:37:00,
2013-06-24 21:40:00,78.5,66.6,30.02,SW,236,0.0,0.0,67,0.00,,,0.00,Wunderground v.1.15,2013-06-25 01:40:00,
2013-06-24 21:41:00,78.5,66.6,30.02,SW,236,0.0,0.0,67,0.00,,,0.00,Wunderground v.1.15,2013-06-25 01:41:00,
2013-06-24 21:42:00,78.5,66.6,30.02,SW,236,1.0,1.0,67,0.00,,,0.00,Wunderground v.1.15,2013-06-25 01:42:00,
2013-06-24 21:45:00,78.5,66.6,30.02,SW,236,0.0,1.0,67,0.00,,,0.00,Wunderground v.1.15,2013-06-25 01:45:00,
2013-06-24 21:47:00,78.5,66.6,30.02,NW,316,0.0,2.0,67,0.00,,,0.00,Wunderground v.1.15,2013-06-25 01:47:00,
2013-06-24 21:48:00,78.5,66.6,30.02,NW,315,1.0,2.0,67,0.00,,,0.00,Wunderground v.1.15,2013-06-25 01:48:00,
2013-06-24 21:50:00,78.5,66.6,30.02,WSW,254,0.0,1.0,67,0.00,,,0.00,Wunderground v.1.15,2013-06-25 01:50:00,
2013-06-24 21:52:00,78.5,66.6,30.02,WSW,254,0.0,1.0,67,0.00,,,0.00,Wunderground v.1.15,2013-06-25 01:52:00,
2013-06-24 21:53:00,78.5,67.1,30.02,WSW,255,2.0,2.0,68,0.00,,,0.00,Wunderground v.1.15,2013-06-25 01:53:00,
2013-06-24 21:54:00,78.5,67.1,30.02,West,276,1.0,4.0,68,0.00,,,0.00,Wunderground v.1.15,2013-06-25 01:54:00,
2013-06-24 21:57:00,78.5,67.5,30.02,WNW,282,0.0,4.0,69,0.00,,,0.00,Wunderground v.1.15,2013-06-25 01:57:00,
2013-06-24 21:59:00,78.5,67.5,30.02,WSW,242,0.0,7.0,69,0.00,,,0.00,Wunderground v.1.15,2013-06-25 01:59:00,
2013-06-24 22:02:00,78.3,67.7,30.02,NW,322,0.0,3.0,70,0.00,,,0.00,Wunderground v.1.15,2013-06-25 02:02:00,
2013-06-24 22:04:00,78.3,67.3,30.01,NW,322,1.0,3.0,69,0.00,,,0.00,Wunderground v.1.15,2013-06-25 02:04:00,
2013-06-24 22:05:00,78.1,67.1,30.02,NW,322,1.0,3.0,69,0.00,,,0.00,Wunderground v.1.15,2013-06-25 02:05:00,
2013-06-24 22:07:00,78.1,67.5,30.02,NW,310,1.0,3.0,70,0.00,,,0.00,Wunderground v.1.15,2013-06-25 02:07:00,
2013-06-24 22:08:00,78.1,67.5,30.02,NW,311,0.0,3.0,70,0.00,,,0.00,Wunderground v.1.15,2013-06-25 02:08:00,
2013-06-24 22:09:00,77.9,67.3,30.02,NW,311,0.0,3.0,70,0.00,,,0.00,Wunderground v.1.15,2013-06-25 02:09:00,
2013-06-24 22:11:00,77.9,66.9,30.02,NW,311,0.0,1.0,69,0.00,,,0.00,Wunderground v.1.15,2013-06-25 02:11:00,
2013-06-24 22:13:00,77.9,66.5,30.01,WNW,301,0.0,2.0,68,0.00,,,0.00,Wunderground v.1.15,2013-06-25 02:13:00,
2013-06-24 22:15:00,77.7,66.3,30.01,WNW,301,0.0,2.0,68,0.00,,,0.00,Wunderground v.1.15,2013-06-25 02:15:00,
2013-06-24 22:16:00,77.7,66.7,30.01,WNW,301,1.0,2.0,69,0.00,,,0.00,Wunderground v.1.15,2013-06-25 02:16:00,
2013-06-24 22:19:00,77.6,66.2,30.01,WNW,290,1.0,4.0,68,0.00,,,0.00,Wunderground v.1.15,2013-06-25 02:19:00,
2013-06-24 22:20:00,77.6,66.2,30.01,SW,229,0.0,1.0,68,0.00,,,0.00,Wunderground v.1.15,2013-06-25 02:20:00,
2013-06-24 22:22:00,77.4,65.6,30.00,SW,230,1.0,5.0,67,0.00,,,0.00,Wunderground v.1.15,2013-06-25 02:22:00,
2013-06-24 22:25:00,77.4,65.6,30.00,WSW,239,0.0,5.0,67,0.00,,,0.00,Wunderground v.1.15,2013-06-25 02:25:00,
2013-06-24 22:29:00,77.2,65.0,30.00,NW,325,4.0,5.0,66,0.00,,,0.00,Wunderground v.1.15,2013-06-25 02:29:00,
2013-06-24 22:32:00,77.2,65.0,30.00,NW,308,0.0,5.0,66,0.00,,,0.00,Wunderground v.1.15,2013-06-25 02:32:00,
2013-06-24 22:33:00,77.2,65.4,30.00,NW,308,0.0,5.0,67,0.00,,,0.00,Wunderground v.1.15,2013-06-25 02:33:00,
2013-06-24 22:36:00,77.0,65.2,30.00,NW,308,0.0,5.0,67,0.00,,,0.00,Wunderground v.1.15,2013-06-25 02:36:00,
2013-06-24 22:38:00,77.0,65.2,30.00,NW,308,0.0,5.0,67,0.00,,,0.00,Wunderground v.1.15,2013-06-25 02:38:00,
2013-06-24 22:41:00,76.8,65.4,30.00,NW,308,0.0,0.0,68,0.00,,,0.00,Wunderground v.1.15,2013-06-25 02:41:00,
2013-06-24 22:43:00,76.7,65.3,30.00,NW,308,0.0,1.0,68,0.00,,,0.00,Wunderground v.1.15,2013-06-25 02:43:00,
2013-06-24 22:45:00,76.7,65.3,30.00,NW,308,0.0,1.0,68,0.00,,,0.00,Wunderground v.1.15,2013-06-25 02:45:00,
2013-06-24 22:47:00,76.7,65.3,30.00,NW,308,0.0,1.0,68,0.00,,,0.00,Wunderground v.1.15,2013-06-25 02:47:00,
2013-06-24 22:50:00,76.5,65.1,30.00,NW,308,0.0,0.0,68,0.00,,,0.00,Wunderground v.1.15,2013-06-25 02:50:00,
2013-06-24 22:52:00,76.5,65.1,29.99,NW,308,1.0,2.0,68,0.00,,,0.00,Wunderground v.1.15,2013-06-25 02:52:00,
2013-06-24 22:55:00,76.5,65.1,29.99,NW,308,0.0,2.0,68,0.00,,,0.00,Wunderground v.1.15,2013-06-25 02:55:00,
2013-06-24 22:56:00,76.5,65.1,29.99,NW,308,1.0,2.0,68,0.00,,,0.00,Wunderground v.1.15,2013-06-25 02:56:00,
2013-06-24 22:58:00,76.5,65.1,29.99,NW,308,0.0,3.0,68,0.00,,,0.00,Wunderground v.1.15,2013-06-25 02:58:00,
2013-06-24 23:01:00,76.5,65.1,30.00,NW,308,0.0,2.0,68,0.00,,,0.00,Wunderground v.1.15,2013-06-25 03:01:00,
2013-06-24 23:02:00,76.5,65.1,30.00,NW,308,0.0,2.0,68,0.00,,,0.00,Wunderground v.1.15,2013-06-25 03:02:00,
2013-06-24 23:04:00,76.3,65.0,30.00,NW,308,0.0,2.0,68,0.00,,,0.00,Wunderground v.1.15,2013-06-25 03:04:00,
2013-06-24 23:06:00,76.3,65.0,30.00,NW,308,0.0,2.0,68,0.00,,,0.00,Wunderground v.1.15,2013-06-25 03:06:00,
2013-06-24 23:07:00,76.3,65.0,29.99,NW,308,0.0,2.0,68,0.00,,,0.00,Wunderground v.1.15,2013-06-25 03:07:00,
2013-06-24 23:10:00,76.1,64.8,30.00,NW,308,0.0,0.0,68,0.00,,,0.00,Wunderground v.1.15,2013-06-25 03:10:00,
2013-06-24 23:12:00,76.1,64.8,30.00,NW,308,0.0,4.0,68,0.00,,,0.00,Wunderground v.1.15,2013-06-25 03:12:00,
2013-06-24 23:17:00,76.0,64.7,30.00,WNW,298,0.0,5.0,68,0.00,,,0.00,Wunderground v.1.15,2013-06-25 03:17:00,
2013-06-24 23:19:00,75.8,64.5,30.00,NW,323,0.0,5.0,68,0.00,,,0.00,Wunderground v.1.15,2013-06-25 03:19:00,
2013-06-24 23:21:00,75.8,64.5,30.00,NW,304,2.0,5.0,68,0.00,,,0.00,Wunderground v.1.15,2013-06-25 03:21:00,
2013-06-24 23:22:00,75.8,64.5,30.00,NW,304,0.0,5.0,68,0.00,,,0.00,Wunderground v.1.15,2013-06-25 03:22:00,
2013-06-24 23:28:00,75.4,64.1,30.00,NW,309,0.0,5.0,68,0.00,,,0.00,Wunderground v.1.15,2013-06-25 03:28:00,
2013-06-24 23:31:00,75.3,64.4,30.00,NW,309,0.0,1.0,69,0.00,,,0.00,Wunderground v.1.15,2013-06-25 03:31:00,
2013-06-24 23:33:00,75.1,64.2,30.00,NW,309,1.0,1.0,69,0.00,,,0.00,Wunderground v.1.15,2013-06-25 03:33:00,
2013-06-24 23:39:00,74.9,64.5,30.01,NW,309,1.0,4.0,70,0.00,,,0.00,Wunderground v.1.15,2013-06-25 03:39:00,
2013-06-24 23:40:00,74.9,64.5,30.01,NW,309,0.0,1.0,70,0.00,,,0.00,Wunderground v.1.15,2013-06-25 03:40:00,
2013-06-24 23:42:00,74.9,64.5,30.01,NW,309,0.0,1.0,70,0.00,,,0.00,Wunderground v.1.15,2013-06-25 03:42:00,
2013-06-24 23:46:00,74.7,64.7,30.01,NW,309,0.0,1.0,71,0.00,,,0.00,Wunderground v.1.15,2013-06-25 03:46:00,
2013-06-24 23:50:00,74.4,64.8,30.01,NW,309,0.0,0.0,72,0.00,,,0.00,Wunderground v.1.15,2013-06-25 03:50:00,
2013-06-24 23:51:00,74.4,64.8,30.01,NW,309,0.0,0.0,72,0.00,,,0.00,Wunderground v.1.15,2013-06-25 03:51:00,
2013-06-24 23:56:00,74.0,64.4,30.01,NW,309,0.0,1.0,72,0.00,,,0.00,Wunderground v.1.15,2013-06-25 03:56:00,
2013-06-24 23:59:00,73.9,64.3,30.01,NW,309,0.0,1.0,72,0.00,,,0.00,Wunderground v.1.15,2013-06-25 03:59:00,